[{"header": {"dx": 0.06612293990616946, "dy": 0.0552356325346848, "nx": 98, "ny": 59, "la1": 35.046912555036876, "la2": 31.78801023549047, "lo1": -121.43107172385933, "lo2": -114.95102361305473, "refTime": "2026041013", "parameterCategory": 1, "parameterNumber": 2}, "data": [4.66, 2.43, -0.0, -0.0, -0.0, -2.43, -2.89, -5.48, -3.58, -0.0, -0.0, -0.0, -0.0, -0.0, -0.0, -7.59, -10.73, -10.73, -10.73, -7.27, -0.0, -0.0, 4.0, 4.0, 5.36, 5.63, 7.51, 6.64, 5.36, 3.32, 1.84, -0.0, -0.0, -4.74, -6.0, -4.43, -0.0, -0.0, -0.0, -0.0, -3.8, 9.83, 8.22, 10.79, 12.79, 13.68, 15.59, 16.48, 16.69, 15.97, 11.6, 8.53, 8.53, 9.42, 9.76, 9.76, 10.02, 10.59, 10.99, 11.5, 11.5, 11.72, 10.99, 10.55, 10.55, 10.91, 12.11, 12.39, 12.79, 12.63, 12.89, 12.14, 11.45, 11.84, 12.27, 11.62, 11.2, -0.0, -13.86, -12.14, -10.08, -9.13, -8.72, -8.0, -4.96, 0.0, 3.8, 6.01, 7.89, 8.17, 10.4, 10.04, 10.01, 10.01, 10.29, 10.66, 9.43, 8.99, 5.31, 2.43, -0.0, -0.0, -0.0, -0.0, -2.98, -6.8, -3.58, -0.0, -0.0, -0.0, -0.0, -0.0, -0.0, -0.0, -10.28, -11.62, -10.28, -8.8, -4.6, -0.0, 2.97, 4.96, 4.83, 6.79, 7.15, 6.32, 5.36, 3.32, 1.58, 2.06, 3.4, -0.0, -6.26, -5.06, -0.0, -0.0, -0.0, -0.0, -6.95, 0.0, 7.19, 8.94, 10.76, 14.11, 16.11, 16.41, 16.76, 12.45, 8.22, 8.22, 8.75, 9.17, 9.36, 9.76, 10.59, 10.99, 11.5, 11.5, 11.99, 11.33, 10.99, 9.84, 9.17, 9.84, 11.16, 11.5, 12.38, 12.21, 12.63, 11.87, 12.66, 12.83, 12.71, 12.83, 12.35, -0.0, -13.86, -12.14, -10.08, -9.13, -8.72, -8.0, -4.96, 0.0, 3.8, 6.01, 7.89, 8.17, 10.4, 10.04, 10.01, 10.01, 10.29, 10.66, 9.43, 8.99, 5.31, 2.89, -0.0, -0.0, -0.0, -0.0, -2.98, -3.69, -3.69, -0.0, -0.0, -0.0, -0.0, -0.0, -0.0, -0.0, 11.18, -11.18, -11.18, -10.0, -9.33, -9.6, -0.0, 4.6, 4.96, 5.1, 6.32, 7.15, 6.32, 2.17, -0.0, 1.4, 3.2, 5.37, 6.36, 8.49, 8.05, 8.94, -0.0, -0.0, 0.0, 2.72, 7.2, 10.73, 12.08, 14.22, 17.47, 18.33, 11.5, 8.24, 8.49, 9.3, 10.24, 10.01, 9.42, 10.73, 11.16, 11.5, 11.77, 12.21, 11.99, 10.99, 9.17, 9.17, 9.17, 9.17, 10.23, 10.94, 11.2, 11.92, 12.63, 13.32, 13.19, 13.41, 12.96, 12.52, 12.52, 14.3, -13.15, -13.15, -10.08, -8.72, -7.67, -6.98, -6.32, -2.17, 2.54, 6.01, 7.44, 9.43, 11.66, 11.64, 9.89, 9.89, 9.76, 10.0, 9.33, 9.03, 3.47, -0.0, -0.0, -0.0, -0.0, -0.0, -0.0, -3.69, -4.66, -0.0, -0.0, -0.0, -0.0, -0.0, -7.9, 11.18, 11.62, 12.07, -12.07, -11.18, -10.6, -10.28, -10.0, -0.0, 3.39, 5.46, 6.01, 7.15, 7.15, 4.71, -0.0, -0.0, -0.0, 4.96, 8.0, 9.21, 9.83, 11.18, 11.03, 9.48, 9.66, 8.4, 9.54, 11.73, 12.33, 15.36, 14.9, 9.3, 8.37, 9.09, 9.86, 10.87, 10.87, 10.19, 10.19, 10.37, 11.33, 11.99, 12.21, 12.6, 11.85, 10.55, 8.01, 6.21, 6.63, 8.24, 9.69, 9.69, 11.03, 11.88, 13.52, 14.25, 14.7, 12.96, 11.21, 11.21, 11.61, 13.15, -11.06, -12.45, -9.33, -9.13, -7.15, -7.07, -6.7, -7.44, 0.0, 5.1, 7.41, 11.28, 12.62, 11.6, 10.3, 9.3, 10.73, 9.83, 9.39, 8.87, 3.47, -0.0, -0.0, -0.0, -0.0, -0.0, -0.0, -3.69, -4.66, -0.0, -0.0, -0.0, -0.0, -0.0, -0.0, 11.62, 11.62, 12.07, 12.07, -12.07, -12.52, -7.59, -7.59, -0.0, -0.0, 3.53, 6.95, 7.81, 7.81, 7.07, 2.83, -3.11, -5.2, 8.22, 10.84, 11.18, 11.18, 12.96, 14.84, 12.96, 13.59, 13.95, 14.11, 13.15, 12.96, 11.45, 9.46, 9.09, 9.46, 10.48, 10.41, 10.41, 10.41, 10.41, 10.19, 11.33, 11.6, 12.45, 12.6, 12.6, 12.14, 8.1, 4.93, 4.24, 6.08, 7.68, 8.85, 8.85, 10.38, 12.03, 13.75, 15.18, 15.55, 15.2, 11.2, 6.71, 8.22, 8.22, 0.0, -11.53, -9.04, -8.05, -6.79, -7.37, -6.18, -3.8, 3.32, 6.95, 9.89, 11.88, 11.95, 10.65, 10.35, -0.0, 2.28, 8.72, 8.94, 9.06, 3.47, -0.0, -0.0, -0.0, -0.0, -0.0, -0.0, -4.66, -4.66, -0.0, -0.0, -0.0, -0.0, -0.0, 11.18, -11.18, 11.62, 12.07, 12.07, -12.52, -12.52, -12.07, 13.41, -0.0, 8.53, 10.8, 9.67, 10.0, 10.41, 10.18, 7.81, -0.0, -0.0, 12.07, 13.41, 13.41, 12.96, 13.86, 17.2, 13.28, 8.93, 13.57, 12.52, 12.35, 11.5, 10.19, 9.82, 9.82, 10.48, 10.8, 9.97, 10.35, 10.35, 10.73, 11.26, 11.85, 12.42, 12.42, 13.01, 13.01, 11.6, 2.45, 2.93, 3.82, 6.08, 7.68, 8.85, 9.17, 10.47, 11.8, 13.52, 14.58, 14.75, 15.9, 15.65, 9.8, 2.1, 2.1, 0.0, -9.66, -7.21, -4.96, -5.03, -5.37, -4.68, 0.0, 5.63, 9.7, 11.47, 10.75, 10.12, 8.85, -0.0, -3.15, 2.97, 9.39, 9.75, 10.43, -0.0, -0.0, -0.0, -0.0, -0.0, -0.0, -0.0, -4.66, -4.52, -0.0, -0.0, 6.95, 10.73, 10.73, 12.07, -11.18, -12.07, 0.0, 0.0, 0.0, -9.17, -6.4, 0.0, 0.0, 13.59, 14.75, 15.2, 14.3, 12.96, 10.18, 7.59, 5.21, 4.4, 9.83, 11.4, 13.67, 14.11, 13.86, 13.86, 13.41, -10.12, 0.0, 13.41, 13.01, 13.19, 9.96, 9.5, 10.01, 9.27, 10.73, 10.35, 9.97, 11.2, 11.87, 12.04, 12.86, 12.88, 12.88, 12.91, 12.9, 8.85, -0.0, 1.44, 4.24, 5.4, 8.24, 9.48, 10.37, 11.33, 12.52, 13.23, 13.44, 13.35, 15.85, 16.35, 16.54, 6.2, 0.0, 2.39, 1.93, -3.52, -1.67, -2.04, -2.13, -0.97, 2.14, 7.01, 9.77, 10.65, 9.36, 7.68, 12.52, -3.15, -3.8, 8.94, 8.22, 10.0, 10.23, -0.0, -0.0, -0.0, -0.0, -0.0, -0.0, -0.0, -4.66, -6.4, -0.0, -0.0, 6.95, 10.28, 11.18, 12.52, -11.18, 12.07, 12.96, 12.96, 13.41, 13.41, 13.41, 9.48, 4.95, 4.81, 10.75, 11.06, 11.38, 14.75, 13.41, 10.8, 10.8, 12.52, 12.52, 11.02, 11.87, 12.04, 11.02, 11.62, 11.62, -12.96, -13.86, -16.09, 16.99, 11.38, 10.12, 7.44, 8.53, 9.08, 9.17, 9.3, 11.21, 11.87, 12.04, 12.52, 12.52, 12.07, 12.07, 12.07, 12.07, 2.82, -0.0, -0.0, 5.2, 7.54, 10.65, 12.11, 12.3, 12.0, 12.47, 12.85, 13.38, 13.86, 14.3, 15.2, 15.2, 14.75, 12.52, 11.2, 10.12, 6.35, 0.0, 0.0, 0.82, 2.37, 4.31, 7.03, 9.11, 8.95, 8.02, 5.0, -4.22, -3.4, -0.0, 8.49, 7.76, 9.65, 10.04, -0.0, -0.0, -0.0, -0.0, -0.0, -0.0, -0.0, -4.66, -6.4, -0.0, -0.0, 5.2, 12.96, 12.96, 12.52, 12.52, 0.0, 0.0, 13.41, 13.41, -0.0, -0.0, 13.86, 10.12, 4.1, 7.9, 4.4, 0.0, 0.0, 14.3, 13.15, 14.42, 14.75, 13.44, 12.35, 11.46, 10.0, 10.0, 9.97, 10.28, -11.6, -13.99, -13.99, -12.52, 11.62, 3.53, 5.6, 9.17, 8.85, 9.42, 10.3, 10.35, 11.45, 11.95, 12.07, 11.46, 11.18, 11.28, 11.46, 9.67, 2.71, 2.1, 2.49, 5.2, 12.39, 12.79, 13.15, 12.9, 12.0, 12.02, 12.52, 13.39, 14.28, 14.65, 14.26, 13.28, 11.46, 11.98, 13.67, 14.86, 12.71, 1.42, 0.82, 2.06, 3.61, 4.32, 6.21, 7.63, 6.87, 5.9, -0.0, -1.98, -0.0, 8.05, 6.79, 8.05, 9.67, 9.04, -0.0, -0.0, -0.0, -0.0, -0.0, -0.0, -0.0, -6.6, -6.4, -9.17, -0.0, 9.17, 10.8, 11.99, 13.86, 0.0, 0.0, 0.0, 0.0, 0.0, -9.17, 12.96, 13.86, 10.12, 0.0, 0.0, 0.0, 0.0, 0.0, 10.12, 11.8, 13.76, 13.99, 13.86, 11.45, 10.84, 10.52, 8.72, 10.4, 0.0, -7.19, -10.79, -8.22, -9.2, -10.28, -0.0, 6.45, 9.66, 9.96, 8.54, 8.24, 7.95, 8.82, 10.68, 11.46, 11.62, 11.46, 9.3, 11.03, 2.82, 1.39, 1.14, 3.68, 8.31, 11.44, 12.39, 13.15, 12.75, 11.78, 10.16, 11.87, 13.05, 13.96, 14.5, 13.88, 11.6, 8.82, 9.97, 11.21, 14.58, 16.09, 11.7, 3.25, 2.31, 3.32, 3.88, 5.52, 6.05, 6.17, 4.96, 7.6, 8.49, 3.0, 3.4, 5.44, 8.32, 9.3, 7.51, -0.0, 4.38, 4.52, -0.0, -0.0, -0.0, -0.0, -6.6, -6.4, -9.48, -0.0, -0.0, 9.8, 12.39, 14.3, 14.3, 13.99, 8.68, 5.81, 5.37, 0.0, 0.0, 12.01, 10.43, 0.0, 12.96, 10.28, 10.28, 0.0, 9.8, 10.79, 12.96, 12.07, 11.18, 5.0, 11.45, 11.4, 11.62, 8.53, 0.0, 0.0, 0.0, 0.0, 11.18, -0.0, -0.0, 2.6, 4.15, 5.75, 4.4, 5.2, 6.48, 7.64, 7.26, 7.13, 7.36, 8.22, 12.07, -12.07, -1.91, -0.0, 2.0, 4.87, 5.81, 6.6, 8.18, 10.69, 11.53, 12.52, 10.04, 10.41, 11.77, 13.57, 13.35, 12.39, 11.53, 9.17, 8.02, 9.69, 11.99, 14.42, 14.94, 8.43, 7.78, 5.36, 4.29, 4.71, 5.21, 5.9, 6.01, 4.71, 4.6, 3.8, 2.49, 5.36, 8.27, 7.68, 3.8, -0.0, 4.38, 4.52, 4.66, -0.0, -0.0, -0.0, -0.0, -0.0, -9.48, 13.41, 13.86, 14.75, 14.3, 13.41, 12.52, 12.52, 14.47, 15.27, 16.33, 16.54, 15.93, 15.49, 16.09, 12.72, 11.6, 12.52, 7.2, 7.9, 10.28, 10.73, 8.22, -0.0, -9.83, 10.73, 10.28, 10.28, 12.07, -8.85, 0.0, 0.0, 13.41, 8.53, 7.9, -0.0, -0.0, -0.0, -0.0, 1.76, 1.76, 2.33, 3.97, 4.87, 5.4, 5.4, 6.21, 8.05, 8.24, -0.0, -6.42, -0.85, 2.32, 4.66, 1.63, 1.13, 4.81, 7.36, 8.83, 9.8, 11.99, 12.96, 12.52, 12.9, 12.46, 10.79, 10.3, 9.17, 6.94, 9.42, 11.37, 13.86, 11.99, 11.2, 12.27, 9.6, 8.4, 7.15, 6.64, 7.44, 6.32, 4.4, 3.98, 3.15, 3.4, 6.04, 8.31, 5.9, -7.6, -0.0, 4.38, 4.52, 4.66, 4.66, -0.0, -0.0, -0.0, -0.0, -0.0, 13.86, 14.3, 14.75, 15.2, 15.65, 15.2, 14.3, 13.41, 12.96, 13.41, 13.34, 13.19, 12.94, 12.94, 12.94, 12.85, 13.01, 12.33, 9.66, 6.95, 10.73, 11.62, -8.22, 11.18, -0.0, -8.8, -9.2, -11.18, -11.62, -10.8, -12.52, -0.0, -0.0, -0.0, -3.11, -2.17, -2.39, -2.49, -0.0, -0.0, -0.0, 1.47, 2.97, 2.7, 3.68, 5.4, 6.63, 11.06, 10.4, -2.99, -3.18, 1.21, 1.25, -0.0, -0.99, 0.95, 3.95, 6.66, 7.59, 8.57, 9.73, 10.58, 10.25, 10.0, 11.71, 8.85, 9.17, 8.53, 11.87, 12.07, 7.59, 11.03, 11.87, 4.24, 11.87, 12.14, 9.96, 9.54, 9.33, 7.07, 6.32, 4.6, 2.82, 4.21, 7.13, 8.53, 7.27, -7.15, -0.0, -0.0, 4.38, 7.93, 8.18, 4.52, 6.4, -0.0, -0.0, -0.0, 14.3, 14.3, 14.75, 15.2, 16.09, 16.09, 16.09, 15.2, 14.75, 14.3, 14.3, 14.25, 14.51, 15.39, 15.39, 15.39, 14.03, 14.19, 13.67, 12.71, 11.62, 11.62, 12.07, 10.73, -10.28, -8.8, -9.39, -10.28, -10.28, -7.59, -11.62, -11.18, -5.0, -3.53, -3.11, -3.11, -4.46, -6.95, -4.8, -4.8, -0.0, -0.0, 13.41, 13.86, 12.52, -11.62, -0.0, 10.8, 13.2, 3.11, -4.48, -0.0, -0.0, -1.43, -1.98, -1.98, -0.0, 2.71, 5.8, 7.51, 8.84, 10.43, 10.22, 9.17, 8.43, 11.18, -0.0, 9.2, 9.54, 9.54, 9.83, 10.28, 11.2, 7.93, 5.6, 10.73, 11.6, 10.73, 8.94, 6.8, 7.51, 4.56, 3.97, 5.1, 7.59, 8.82, 6.95, 0.0, -0.0, -0.0, 4.38, 7.93, 7.93, 7.93, 7.93, 6.4, 6.4, 10.12, -0.0, 14.75, 14.75, 15.2, 16.09, 16.54, 16.54, 16.54, 16.09, 15.65, 15.2, 15.12, 15.58, 15.83, 15.83, 16.27, 16.01, 15.65, 15.2, 14.75, 13.86, 11.87, 12.07, 10.73, 10.28, 9.83, 10.28, 9.39, 11.18, 0.0, 10.73, 11.62, -0.0, -4.8, -4.2, -4.0, -4.0, -6.01, -6.32, -9.83, 10.28, 10.28, 0.0, 0.0, 8.49, -7.2, -2.69, 9.21, 12.43, 8.01, -1.58, -4.32, -4.15, -5.0, -5.0, -3.98, -2.71, -0.0, 5.52, 7.44, 7.78, 10.01, 11.77, 10.28, 10.18, 6.95, 5.29, 8.03, 9.55, 11.18, 10.0, 8.94, 7.59, 6.44, 1.69, 4.65, 9.48, 9.3, 8.4, 7.81, 7.87, 6.01, 4.58, 4.95, 6.73, 7.6, 6.7, 6.7, -0.0, -0.0, 6.2, 4.52, 7.93, 10.12, 7.93, 7.93, 10.12, 6.4, 10.43, -0.0, 14.75, 15.2, 15.65, 16.09, 16.54, 16.99, 16.99, 16.54, 16.09, 15.99, 16.01, 16.22, 16.27, 16.27, 16.47, 16.09, 15.65, 15.2, 15.05, 14.99, 13.44, 11.62, 10.28, 8.94, 9.83, 9.83, 11.18, 10.73, 10.28, 10.73, 10.73, -0.0, -4.2, -3.8, -2.69, -3.6, -0.0, -0.0, 8.49, 8.49, 8.49, 8.49, 8.05, 8.05, 0.0, 6.95, 11.62, 8.22, -0.0, -4.8, -7.27, -6.95, -8.4, -8.91, -7.07, -2.39, 3.25, 6.87, 8.43, 10.6, 12.52, 11.4, 11.18, 5.0, 6.7, 10.69, 12.5, 13.15, 12.96, 8.85, 5.4, 5.2, 2.1, 0.0, 2.02, 2.39, 2.17, 4.6, 6.64, 4.47, 4.87, 6.44, 7.06, 6.87, 6.01, 6.01, 9.8, 6.2, 6.4, 6.2, 7.69, 10.12, 10.12, 10.43, 7.93, 10.12, 6.6, -0.0, -0.0, 15.2, 15.65, 15.65, 15.65, 16.54, 16.99, 16.99, 16.54, 16.09, 15.99, 15.71, 15.83, 15.83, 16.03, 16.09, 16.09, 16.37, 16.82, 16.76, 14.94, 12.79, 6.32, 8.94, 9.39, 10.73, 10.28, 10.28, 0.0, 0.0, 9.83, -0.0, -4.2, -4.0, -4.0, -0.0, -0.0, -0.0, -0.0, -0.0, -0.0, 6.64, 6.64, 6.64, 9.83, 10.28, -0.0, -0.0, 7.9, -0.0, -4.4, -4.2, -6.64, -5.69, -8.94, -7.6, 2.97, 9.45, 12.91, 11.84, 11.8, 10.4, 3.68, 2.81, 7.43, 11.06, 12.76, 12.82, 13.19, 13.67, 10.73, 3.04, 0.0, 0.0, 0.0, 0.0, 2.33, 4.21, 6.01, 5.69, 4.56, 5.59, 7.68, 6.64, 6.01, 6.01, 12.39, 6.2, 6.4, 6.4, 9.8, 9.8, 10.12, 10.12, 10.43, 8.18, 8.18, 6.8, 6.8, 13.59, 15.2, 15.2, 15.65, 16.09, 16.54, 16.54, 16.09, 16.09, 15.65, 15.08, 15.27, 15.78, 16.46, 16.54, 16.54, 17.43, 17.1, 17.53, 16.6, 14.39, 10.41, 3.8, 4.0, 0.0, 7.59, 4.6, 4.4, 0.0, 8.49, -0.0, -0.0, -0.0, -0.0, -0.0, -0.0, -0.0, -0.0, -0.0, -0.0, 6.95, 6.95, 6.95, -0.0, -0.0, -0.0, 7.9, 7.9, 4.6, -0.0, -2.97, -5.21, -2.69, -3.6, -6.01, 2.39, 10.27, 15.46, 13.31, 12.88, 14.47, 5.98, 4.42, 9.61, 12.76, 13.65, 13.81, 13.19, 13.47, 13.86, 0.0, 0.0, 0.0, 0.0, 0.0, 1.05, 3.61, 5.06, 6.01, 4.22, 5.13, 6.83, 6.48, 5.63, 5.63, 12.39, 9.8, 9.8, 10.12, 9.8, 9.8, 10.12, 10.12, 10.43, 10.43, 8.18, 8.43, 11.06, 13.99, 15.2, 16.99, 14.75, 15.65, 15.65, 15.2, 15.65, 15.78, 15.65, 16.54, 15.2, 16.54, 13.86, 16.99, 17.43, 16.09, 17.43, 17.35, 17.35, 16.19, 14.53, 10.01, 7.87, 5.63, 5.46, 3.53, 5.7, 4.6, 10.28, -0.0, -0.0, -0.0, -0.0, -0.0, -0.0, -0.0, -0.0, -0.0, -0.0, -0.0, -0.0, -0.0, -0.0, 7.59, 7.9, 10.0, 9.6, 7.27, -0.0, -4.71, -4.0, -3.8, -4.71, 0.0, 4.4, 9.82, 13.8, 15.41, 17.9, 18.0, 17.56, 16.31, 15.65, 15.2, 15.53, 15.41, 14.19, 14.27, 12.39, -3.04, 0.0, 0.0, 0.0, 1.84, 1.18, 1.07, 1.39, 4.66, 5.36, 4.8, 5.06, 5.9, 5.45, 5.45, 13.15, 11.53, 11.53, 11.53, 11.53, 11.53, 11.9, 10.12, 10.43, 10.43, 10.43, 12.65, 11.06, 14.84, 15.65, 15.2, 14.75, 14.75, 15.65, 15.2, 16.99, 15.61, 15.27, 16.54, 16.22, 16.54, 16.54, 16.09, 16.99, 16.99, 17.43, 17.43, 16.91, 16.91, 15.77, 14.11, 11.12, 9.97, 8.82, 7.28, 7.67, 9.21, 9.39, 8.72, 7.15, 9.6, 6.95, 6.95, 6.64, -0.0, -0.0, -0.0, -0.0, -0.0, -0.0, 4.2, 4.8, 5.46, 9.75, 10.73, 10.28, 6.95, -4.4, -5.21, -3.8, -5.1, -6.32, -0.0, 10.28, 11.62, 13.01, 14.88, 18.48, 19.66, 18.78, 15.85, 11.96, 11.06, 14.84, 15.08, 15.17, 15.2, 14.47, -7.44, -2.93, 2.71, 3.25, 7.27, 1.84, 0.0, 0.0, 3.97, 5.57, 4.07, 3.88, 4.6, 5.45, 5.45, 13.15, 13.15, 11.53, 11.53, 11.53, 11.53, 11.53, 11.9, 12.27, 12.65, 12.27, 12.65, 14.84, 14.84, 15.65, 15.65, 14.75, 14.75, 12.96, 15.2, 16.99, 16.54, 16.54, 15.61, 16.76, 16.86, 16.09, 16.99, 17.43, 17.88, 17.88, 17.43, 17.43, 17.1, 16.66, 15.36, 13.99, 12.3, 11.03, 9.89, 9.29, 9.83, 9.83, 9.74, 8.91, 10.18, 8.8, 6.95, 6.64, -0.0, -0.0, -0.0, -0.0, -0.0, -0.0, 2.83, 4.6, 5.7, 9.6, 9.83, 9.83, -6.95, -6.95, -6.95, -6.32, -6.32, -6.64, -0.0, 7.59, 8.22, 9.17, 12.37, 17.12, 19.79, 18.68, 14.13, 9.07, 10.19, 11.38, 12.86, 14.84, 15.51, 15.2, 0.0, -11.99, 0.0, 10.73, 6.95, 7.27, 3.82, 1.68, 3.96, 4.65, 3.11, 2.7, 3.49, 3.3, 3.3, 13.44, 13.44, 12.39, 12.39, 12.39, 11.09, 12.39, 12.79, 13.19, 13.59, 13.59, 14.42, 14.75, 15.18, 15.65, 15.65, 15.2, 14.75, 14.75, 16.54, 16.99, 16.54, 16.09, 16.09, 16.99, 17.88, 17.43, 16.54, 16.54, 16.99, 17.43, 17.43, 17.43, 17.43, 16.76, 16.76, 15.49, 13.72, 12.39, 11.06, 10.2, 9.83, 9.39, 9.39, 8.85, 7.94, 10.28, 9.83, 9.39, 6.32, -0.0, -0.0, -0.0, -0.0, -0.0, -0.0, 2.39, 2.6, 4.8, 9.83, -8.94, -7.81, -7.81, -6.64, -5.21, -2.97, -4.2, -0.0, -0.0, -0.0, 1.71, 9.06, 14.97, 17.5, 7.24, 6.09, 7.69, 7.58, 8.4, 8.86, 11.68, 13.56, 14.95, 14.3, 13.86, 11.62, 0.0, 5.21, 6.01, 7.9, 5.43, 3.19, 2.82, 2.83, 2.06, 2.69, 3.32, 3.32, 13.86, 13.86, 13.44, 12.39, 11.09, 11.09, 11.44, 12.79, 13.19, 13.59, 13.59, 14.75, 15.18, 15.18, 15.18, 15.65, 15.2, 14.75, 15.2, 16.54, 16.99, 16.09, 15.2, 15.2, 16.54, 17.43, 17.88, 17.43, 16.99, 16.09, 16.54, 16.54, 16.54, 16.54, 16.54, 16.54, 16.09, 14.64, 12.86, 11.53, 10.73, 10.28, 9.83, 8.94, 7.97, 7.5, 9.83, 9.39, 8.94, 8.49, -0.0, -0.0, -0.0, -0.0, -0.0, -0.0, -0.0, -0.0, -0.0, -8.0, -8.67, -8.48, -6.64, -4.0, -2.83, -1.84, -0.0, -0.0, -0.0, -2.97, -6.2, 3.96, 18.33, 16.33, 0.0, 0.0, 3.28, 5.46, 6.87, 7.15, 8.06, 10.12, 11.88, 12.74, 11.09, 6.7, 7.27, 5.86, 6.58, 8.22, 8.85, 10.0, 10.28, 8.94, 0.0, 3.8, 3.15, 3.15, 13.86, 13.86, 13.44, 12.39, 11.09, 11.09, 11.09, 11.44, 13.19, 13.59, 13.59, 13.99, 15.18, 15.18, 15.18, 15.18, 15.65, 14.75, 15.65, 16.09, 16.54, 16.99, 16.09, 14.75, 15.2, 16.54, 17.43, 17.43, 17.43, 16.99, 16.09, 16.09, 16.09, 16.09, 16.09, 16.09, 16.09, 15.2, 13.41, 11.62, 10.28, 9.83, 10.28, 10.28, 8.94, 7.6, 9.83, 9.39, 8.94, 8.94, 8.94, 6.01, -0.0, -0.0, -0.0, -0.0, -0.0, -0.0, -0.0, -0.0, -6.01, -8.49, -8.49, -0.0, -2.17, -0.0, -0.0, 2.39, 2.17, -0.0, -9.2, 13.99, 17.86, 18.74, 16.91, 0.0, 0.0, 2.72, 4.66, 5.41, 5.83, 6.73, 8.78, 10.02, 8.44, 5.77, 5.32, 4.4, 2.97, -9.39, 9.39, 6.64, 8.4, 8.94, 7.6, 3.8, 3.32, 3.32, 13.86, 13.86, 13.44, 12.39, 12.39, 11.09, 11.09, 11.44, 13.19, 13.59, 13.59, 13.59, 13.99, 15.34, 15.34, 15.34, 15.34, 15.2, 15.2, 16.09, 16.09, 16.99, 16.99, 16.54, 15.65, 15.65, 16.99, 17.43, 17.43, 16.99, 16.99, 16.54, 15.65, 15.65, 16.09, 16.09, 16.09, 15.65, 14.3, 12.07, 10.28, 9.83, 9.83, 10.28, 9.83, 9.39, 8.05, 8.49, 8.82, 9.26, 8.77, 9.2, 6.01, -0.0, -0.0, -0.0, -0.0, -0.0, 8.94, 9.39, 9.83, 8.49, 8.94, -0.0, -0.0, -0.0, -0.0, -0.0, -0.0, 0.0, 3.53, 10.23, 16.35, 17.79, 18.85, 18.57, 18.33, 6.31, 5.81, 3.55, 4.91, 5.79, 8.22, 9.12, 7.44, 5.0, 3.25, 0.0, -8.94, -8.94, -9.83, 9.83, 9.83, 8.91, 8.0, 6.32, 4.96, 4.96, 13.86, 13.86, 13.44, 12.39, 11.09, 11.09, 11.09, 11.44, 13.19, 13.19, 13.59, 13.59, 14.53, 15.34, 15.34, 15.34, 15.34, 15.34, 15.65, 15.65, 15.65, 16.09, 16.99, 16.99, 16.54, 16.09, 16.09, 16.99, 17.43, 17.43, 16.99, 16.99, 16.54, 16.54, 16.09, 16.09, 16.09, 16.09, 15.65, 13.41, 11.18, 10.28, 9.83, 9.83, 10.28, 10.28, 9.83, 8.49, 8.94, 9.39, 9.29, 8.38, 9.83, 6.01, 6.01, -0.0, -0.0, -0.0, 8.05, 8.94, 9.83, 10.28, 8.0, -0.0, -0.0, -0.0, -0.0, -0.0, -3.25, 0.0, 2.1, 10.12, 13.25, 16.96, 18.26, 18.49, 18.73, 18.73, 7.98, 3.6, 3.68, 5.79, 7.15, 7.21, 5.4, 3.98, 0.0, -8.49, -8.94, -8.49, -8.4, 0.0, 7.59, 8.55, 8.8, 8.4, 7.81, 7.81, 13.86, 13.86, 13.15, 11.53, 9.8, 9.8, 11.09, 11.09, 12.79, 13.19, 13.59, 14.11, 14.53, 14.11, 15.34, 15.34, 15.34, 15.34, 15.34, 15.65, 15.65, 15.65, 16.09, 16.54, 16.54, 16.54, 16.09, 16.54, 16.99, 16.99, 16.99, 16.99, 16.99, 16.99, 16.54, 16.54, 16.54, 16.54, 16.54, 15.65, 13.86, 12.07, 10.73, 9.83, 10.28, 10.28, 10.28, 9.39, 8.94, 8.94, 8.94, 8.94, 8.05, 7.37, 7.2, 5.37, -0.0, -0.0, -0.0, 7.6, 9.39, 9.39, 8.93, 2.17, -0.0, -0.0, -0.0, -0.0, -6.95, 0.0, 5.0, 8.22, 11.62, 13.82, 14.25, 14.97, 19.42, 17.91, 13.1, 1.05, 2.81, 4.4, 5.73, 5.8, 5.2, 1.84, -3.11, -8.49, -8.49, -8.94, -4.0, 0.0, 3.68, 5.2, 7.9, 8.58, 8.58, 8.58, 13.15, 13.15, 11.53, 9.8, 9.8, 11.09, 11.09, 11.09, 11.44, 12.79, 13.19, 14.11, 14.11, 14.11, 14.11, 14.9, 15.34, 15.34, 15.43, 15.43, 15.65, 15.65, 15.65, 15.65, 16.09, 16.09, 16.09, 16.09, 16.54, 16.54, 16.54, 16.54, 16.99, 16.99, 16.99, 16.54, 16.54, 16.99, 16.99, 16.09, 14.75, 12.96, 11.18, 9.83, 10.28, 9.83, 10.28, 9.83, 8.94, 8.94, 8.94, 8.49, 8.49, 7.6, 7.15, 7.6, 7.6, -0.0, -5.06, -7.6, -8.05, 8.94, 4.4, 2.97, 2.28, 2.71, -0.0, -0.0, 9.83, 0.0, 6.2, 10.35, 10.19, 10.87, 12.88, 14.3, 17.43, 16.9, 13.86, 0.0, 0.97, 4.52, 5.64, 5.16, 3.82, 0.0, -7.27, -7.6, 0.0, 0.0, 0.0, 0.0, 3.82, 3.04, 5.6, 7.24, 8.22, 8.22, 13.15, 13.15, 11.53, 9.8, 9.8, 11.09, 11.09, 11.44, 11.44, 12.79, 13.19, 14.11, 14.53, 14.53, 14.53, 14.11, 14.9, 14.99, 14.99, 14.99, 15.65, 15.65, 15.65, 15.65, 15.65, 15.65, 15.65, 16.09, 16.54, 16.54, 16.54, 16.54, 16.54, 16.54, 16.54, 16.54, 16.54, 16.99, 16.99, 16.54, 15.65, 13.41, 11.62, 9.83, 9.39, 9.7, 10.73, 11.62, 11.62, 9.39, 8.94, 8.94, 8.49, 8.05, 6.71, 6.71, 7.6, 7.6, -5.06, -6.8, -7.6, -8.94, 9.39, -0.0, -0.0, -0.0, 2.1, -0.0, -9.83, 0.0, 7.9, 11.87, 11.87, 9.76, 9.62, 12.92, 15.01, 14.58, 13.86, 6.7, 0.0, 3.85, 6.24, 6.4, 4.75, 0.0, -8.8, -4.6, 0.0, 3.53, 0.0, 0.0, 0.0, 0.0, 3.25, 5.8, 8.53, 8.53, 11.53, 11.53, 11.53, 9.8, 11.09, 11.09, 11.09, 11.44, 12.79, 12.79, 12.79, 14.11, 14.11, 14.53, 14.94, 14.53, 14.99, 14.99, 14.99, 14.99, 15.43, 15.65, 15.65, 15.65, 15.65, 15.65, 15.2, 15.65, 16.09, 16.09, 16.09, 16.09, 16.09, 16.09, 16.41, 16.44, 16.54, 16.54, 16.99, 16.99, 16.09, 14.3, 12.52, 9.83, 8.05, 9.83, 12.07, 13.15, 13.15, 12.27, 10.96, 8.77, 8.49, 7.6, 6.71, 6.71, 7.15, 7.15, 7.6, -7.15, -7.15, 8.94, 8.49, -0.0, -0.0, -0.0, -0.0, 4.8, 9.39, 0.0, 6.2, 10.8, 12.92, 13.32, 11.95, 13.07, 13.12, 12.26, 13.2, 13.15, 4.98, 3.66, 5.63, 7.01, 6.53, 6.0, 6.0, 5.8, 3.96, 5.6, 0.0, 12.52, 8.85, 0.0, 4.1, 5.8, 8.85, 8.85, 11.16, 11.16, 11.53, 11.09, 11.09, 11.09, 11.09, 12.79, 12.79, 13.19, 13.19, 12.79, 14.11, 14.11, 14.53, 14.53, 14.84, 15.43, 15.43, 15.43, 15.43, 15.43, 15.43, 15.65, 15.65, 15.65, 15.2, 14.75, 15.2, 15.65, 16.09, 15.65, 15.65, 15.65, 16.09, 16.09, 16.54, 16.54, 16.54, 16.99, 16.54, 15.2, 12.96, 10.73, 8.94, 10.08, 12.96, 14.3, 14.3, 13.41, 11.4, 9.11, 6.51, 6.51, 5.64, 5.2, 6.79, 7.6, 7.6, 7.15, -7.15, 0.0, 8.49, -0.0, -0.0, -0.0, -3.8, 9.83, 10.28, 9.2, 4.4, 4.8, 12.42, 14.72, 17.35, 16.22, 14.15, 11.87, 11.44, 14.3, 11.7, 4.54, 5.99, 7.54, 8.2, 9.88, 11.88, 12.16, 13.44, 12.3, 12.96, -0.0, 5.8, 11.2, 12.3, 12.58, 12.27, 12.27, 11.99, 11.99, 11.99, 11.09, 11.09, 11.09, 11.09, 12.79, 12.79, 13.19, 13.19, 13.19, 13.19, 14.53, 14.53, 14.53, 14.84, 15.87, 15.87, 15.87, 15.87, 15.87, 15.43, 15.43, 15.65, 15.65, 15.2, 14.3, 16.09, 14.75, 15.65, 16.09, 16.09, 15.65, 15.65, 16.09, 16.09, 16.54, 16.54, 16.54, 16.54, 15.65, 13.86, 11.18, 10.28, 11.06, 12.83, 14.75, 13.86, 12.52, 10.08, 7.89, 6.94, 6.51, 5.51, 4.77, 5.2, 6.79, 6.8, 5.06, 0.0, 0.0, 8.49, -0.0, -0.0, -0.0, -0.0, 0.0, 9.2, 9.96, 5.46, 0.0, 5.6, 15.2, 20.1, 21.19, 13.63, 8.37, 9.17, 12.94, 14.85, 12.01, 8.51, 10.6, 11.7, 11.7, 13.41, 14.07, 13.28, 12.96, 12.52, 8.85, 8.85, 10.41, 12.27, 12.52, 12.07, 12.07, 12.45, 12.45, 12.45, 12.39, 12.39, 12.39, 12.39, 12.79, 12.79, 13.19, 13.19, 13.19, 13.19, 13.19, 14.53, 14.53, 14.84, 15.43, 15.43, 15.87, 15.87, 15.87, 15.87, 15.43, 14.99, 15.2, 15.2, 14.3, 13.86, 15.65, 14.75, 15.65, 16.09, 16.09, 16.09, 16.09, 16.09, 16.54, 16.54, 16.54, 16.54, 16.09, 14.3, 12.07, 10.73, 11.62, 12.96, 13.86, 13.86, 11.62, 9.26, 8.77, 8.77, 7.81, 6.94, 5.94, 5.64, 5.09, 5.94, 5.94, 4.11, 5.37, 8.94, 8.05, -0.0, -2.54, -3.6, 8.49, 6.95, 9.6, 10.28, -10.73, 0.0, 10.86, 18.91, 25.42, 13.99, -2.37, 2.37, 11.33, 13.99, 15.97, 16.09, 16.31, 16.39, 16.8, 16.8, 15.54, 14.11, 12.96, 12.27, 10.04, 8.53, 11.2, 12.27, 12.27, 11.46, 11.46, 12.72, 12.72, 12.45, 12.45, 12.39, 12.39, 12.39, 12.79, 12.79, 13.19, 13.19, 14.75, 14.31, 13.19, 14.11, 14.53, 15.34, 15.43, 15.43, 15.87, 15.87, 16.31, 15.87, 15.87, 14.99, 14.99, 15.2, 14.75, 14.75, 14.75, 14.55, 15.2, 15.65, 15.65, 16.09, 16.09, 16.09, 16.09, 16.54, 16.54, 16.54, 16.54, 15.2, 12.96, 11.62, 11.62, 12.52, 13.86, 13.86, 11.95, 9.74, 9.26, 9.21, 8.77, 7.2, 6.94, 6.51, 6.07, 5.2, 5.64, 5.37, 5.69, 8.05, -0.0, -0.0, -4.22, -5.69, -5.69, 0.0, 0.0, 9.83, 11.62, 6.7, 8.38, 15.82, 23.44, 19.22, 12.79, 13.41, 13.15, 14.23, 15.39, 16.46, 16.99, 16.99, 17.43, 17.84, 16.05, 13.86, 12.39, 11.45, 11.21, 10.8, 11.71, 12.07, 11.91, 11.95, 11.95, 12.72, 12.72, 12.72, 12.45, 12.87, 12.39, 12.39, 12.79, 13.19, 14.31, 14.75, 14.75, 14.75, 14.31, 14.31, 14.9, 14.9, 14.99, 14.99, 15.43, 15.87, 15.87, 15.87, 15.87, 15.43, 15.2, 15.2, 14.75, 14.75, 15.2, 15.2, 15.2, 15.2, 15.2, 15.65, 15.65, 16.09, 16.09, 16.54, 16.54, 16.54, 16.09, 15.2, 13.41, 12.07, 11.62, 12.52, 13.41, 13.28, 12.83, 10.62, 10.14, 9.26, 8.3, 7.89, 6.8, 6.4, 6.0, 6.07, 5.26, 4.4, 7.2, 8.05, -0.0, -6.01, -7.6, -6.8, -8.49, -8.94, -9.39, 9.83, 11.62, 12.04, 11.58, 13.64, 17.7, 19.35, 17.62, 15.55, 15.65, 14.03, 14.65, 15.84, 16.47, 16.09, 16.09, 16.09, 14.3, 12.47, 11.84, 11.35, 10.75, 11.18, 11.46, 12.07, 12.07, 12.07, 12.07, 13.28, 13.28, 12.72, 12.72, 12.87, 12.87, 12.79, 12.79, 13.19, 14.31, 14.75, 14.75, 14.75, 14.31, 14.31, 14.9, 14.9, 14.99, 14.99, 15.43, 15.43, 15.87, 15.87, 15.87, 15.43, 15.2, 15.2, 14.75, 14.75, 15.2, 15.2, 15.2, 14.75, 14.75, 14.75, 15.2, 15.65, 15.65, 16.09, 16.09, 16.09, 16.09, 15.65, 13.41, 12.07, 11.62, 11.95, 12.83, 13.28, 12.83, 11.51, 10.14, 9.7, 8.72, 7.89, 7.2, 6.8, 6.4, 6.0, 5.2, 4.98, 4.8, 8.05, 7.6, -5.69, -8.94, -7.2, -8.49, -8.94, -8.94, -10.73, 10.28, 13.41, 13.37, 14.31, 15.07, 15.98, 17.83, 20.72, 21.46, 18.65, 13.02, 10.43, 14.11, 13.86, 13.41, 12.96, 12.07, 11.62, 11.14, 11.13, 11.11, 11.53, 11.62, 11.62, 12.07, 12.07, 12.07, 12.83, 12.83, 13.28, 12.72, 13.15, 12.87, 13.28, 12.79, 14.31, 14.31, 14.75, 14.75, 14.75, 14.75, 14.31, 14.47, 14.9, 14.9, 14.99, 15.43, 15.43, 15.43, 15.87, 15.87, 15.43, 14.99, 14.99, 14.75, 14.75, 15.2, 15.2, 15.2, 14.75, 14.75, 14.75, 14.75, 14.75, 15.2, 15.65, 16.09, 16.09, 16.09, 15.2, 12.96, 10.28, 10.73, 11.51, 12.39, 12.46, 12.46, 11.45, 10.6, 9.75, 9.13, 8.3, 7.47, 6.8, 6.8, 6.0, 5.6, 5.2, 4.46, 8.05, 7.6, -8.05, -8.94, -8.05, -7.6, -8.0, -8.94, -9.39, -0.0, 10.41, 14.68, 14.73, 13.82, 14.18, 16.15, 20.3, 22.58, 20.7, 13.56, 4.24, 10.79, 12.35, 12.45, 12.48, 11.14, 11.18, 11.18, 11.62, 11.62, 11.62, 12.07, 12.07, 11.62, 11.95, 11.91, 12.86, 12.86, 13.28, 12.89, 13.15, 12.87, 13.28, 13.28, 14.31, 14.31, 14.75, 14.75, 14.75, 14.75, 14.75, 14.47, 14.47, 14.9, 14.9, 15.43, 15.43, 15.43, 15.43, 15.87, 15.43, 14.99, 14.55, 14.55, 14.75, 14.75, 15.2, 14.75, 14.75, 14.75, 14.75, 14.75, 14.3, 15.2, 15.2, 15.65, 15.65, 16.09, 14.75, 12.07, 9.83, 10.73, 11.51, 12.04, 12.72, 12.3, 11.87, 11.03, 10.18, 9.13, 8.3, 7.89, 6.8, 6.52, 5.36, 5.01, 4.65, 4.46, 0.0, 7.15, 0.0, 8.49, -8.49, -8.05, -8.49, -8.49, -8.94, -10.28, 10.8, 13.82, 17.43, 15.09, 12.79, 14.03, 17.74, 19.86, 18.16, 15.14, 12.79, 6.0, 10.79, 12.3, 12.27, 11.57, 11.62, 11.62, 11.62, 11.62, 11.62, 12.07, 12.07, 12.0, 12.0, 11.95, 12.86, 12.86, 12.83, 13.28, 13.15, 13.15, 13.28, 13.28, 14.47, 14.31, 14.9, 14.75, 14.75, 14.75, 14.9, 14.47, 14.47, 14.47, 14.9, 14.9, 15.43, 15.43, 15.43, 15.43, 15.43, 14.99, 14.55, 14.55, 14.11, 14.3, 14.75, 14.75, 14.75, 14.75, 14.3, 14.75, 14.3, 14.3, 15.2, 15.2, 15.65, 15.65, 14.75, 12.07, 10.73, 12.07, 13.72, 13.57, 13.57, 13.15, 12.3, 11.21, 9.96, 9.55, 8.3, 7.89, 6.44, 6.52, 5.72, 5.36, 5.01, 4.11, 3.79, 0.0, 0.0, 8.05, -7.6, -8.05, -8.05, 8.49, -8.94, -8.0, 5.2, 12.86, 15.46, 16.19, 15.65, 13.99, 15.01, 14.68, 14.53, 14.71, 14.47, 10.12, 0.0, 12.3, 12.79, 12.07, 12.07, 12.07, 11.62, 11.62, 11.62, 12.07, 12.01, 12.01, 12.0, 12.0, 12.86, 12.86, 12.83, 12.89, 12.89, 13.15, 13.15, 13.28, 14.03, 14.47, 14.47, 14.47, 14.9, 14.9, 14.47, 14.47, 14.47, 14.47, 14.47, 14.9, 14.99, 14.99, 14.99, 15.43, 15.43, 15.43, 14.55, 14.11, 14.11, 14.3, 14.3, 14.75, 14.75, 14.75, 14.3, 14.3, 14.3, 13.86, 14.3, 14.75, 14.75, 15.2, 14.11, 12.27, 10.79, 12.71, 14.99, 14.53, 13.7, 13.28, 12.87, 11.62, 9.96, 9.13, 7.67, 6.79, 6.44, 6.52, 5.93, 5.06, 4.74, 4.11, 5.37, 0.0, 7.6, 8.05, -7.6, -8.49, -7.6, 8.05, -8.49, -4.0, 3.39, 10.0, 12.52, 14.95, 18.54, 19.22, 14.44, 9.27, 10.79, 12.52, 13.41, 12.96, 12.96, 12.52, 12.07, 12.07, 11.62, 11.62, 11.62, 11.62, 11.62, 12.01, 12.01, 12.01, 12.0, 12.0, 12.42, 12.42, 12.83, 12.46, 12.89, 12.72, 13.15, 13.57, 14.11, 14.03, 14.47, 14.47, 14.47, 14.47, 14.47, 14.47, 14.47, 14.47, 14.47, 14.47, 14.9, 14.9, 14.9, 14.9, 14.9, 14.9, 14.47, 14.11, 14.11, 13.86, 13.86, 13.86, 14.3, 14.3, 14.3, 13.86, 13.86, 13.41, 13.86, 14.3, 14.3, 14.11, 13.67, 12.35, 11.45, 12.72, 14.55, 14.99, 13.28, 12.87, 12.45, 11.21, 9.13, 8.05, 7.15, 6.79, 6.28, 6.28, 6.28, 5.93, 5.06, 4.74, 4.11, 5.37, 7.6, 7.6, 8.05, 8.05, -0.0, -8.05, -6.01, -2.69, 0.0, 5.9, 9.67, 13.33, 17.36, 21.95, 17.76, 11.71, 0.0, 11.62, 12.07, 12.52, 12.14, 11.45, 11.28, 11.46, 11.51, 11.53, 11.53, 11.53, 11.55, 11.78, 12.0, 12.0, 12.0, 12.0, 12.42, 12.42, 12.58, 12.46, 12.89, 12.89, 13.15, 13.15, 13.15, 14.11, 14.03, 14.47, 14.47, 14.47, 14.47, 14.47, 14.47, 14.47, 14.47, 14.47, 14.9, 14.9, 14.9, 14.9, 14.9, 14.9, 14.47, 14.3, 13.86, 13.86, 13.41, 13.41, 13.41, 13.86, 14.3, 13.41, 13.41, 13.41, 13.41, 13.28, 13.72, 13.67, 13.23, 11.91, 11.03, 12.3, 14.11, 14.11, 12.72, 11.87, 11.45, 10.38, 8.72, 8.05, 7.67, 7.15, 6.28, 6.28, 6.28, 6.28, 5.37, 5.37, 4.02, 5.37, 0.0, 7.6, 8.05, -0.0, -5.06, -5.37, -5.69, -2.06, 0.0, 3.82, 7.15, 9.08, 14.03, 18.7, 20.17, 16.86, 13.99, 14.7, 15.15, 13.63, 12.33, 11.12, 10.35, 10.8, 11.09, 11.3, 11.71, 11.28, 11.71, 12.14, 11.78, 11.78, 11.78, 11.78, 12.42, 12.42, 12.58, 12.58, 12.89, 12.89, 13.32, 13.32, 13.57, 14.11, 14.11, 14.47, 14.47, 14.47, 14.47, 14.47, 14.47, 14.47, 14.47, 14.47, 14.9, 14.9, 14.9, 14.9, 14.9, 15.2, 14.75, 14.3, 13.86, 13.41, 13.41, 13.41, 13.41, 13.41, 13.41, 13.41, 12.96, 13.41, 13.28, 13.28, 13.28, 13.23, 12.79, 11.03, 10.6, 11.45, 12.72, 12.72, 12.72, 11.45, 10.6, 9.55, 7.67, 7.67, 7.28, 6.63, 6.28, 6.28, 5.93, 6.28, 5.69, 5.37, 5.06, 3.47, 5.69, 8.05, 8.05, -0.0, -5.37, -7.6, -6.32, 0.0, 0.0, 3.82, 6.7, 8.73, 12.14, 14.72, 16.62, 16.87, 16.09, 17.95, 19.42, 18.33, 11.64, 7.79, 9.17, 9.96, 9.5, 10.24, 10.87, 10.4, 11.2, 10.8, 11.3, 10.88, 10.88, 10.88, 12.14, 12.14, 12.58, 12.58, 12.58, 13.01, 12.89, 13.32, 13.57, 13.57, 14.11, 14.11, 14.47, 14.47, 14.47, 14.47, 14.47, 14.47, 14.47, 14.47, 14.47, 14.9, 14.9, 14.9, 15.2, 15.2, 14.75, 14.3, 13.86, 13.86, 13.41, 12.96, 12.96, 12.96, 12.96, 12.96, 12.96, 12.96, 13.23, 12.79, 12.79, 12.79, 12.79, 11.03, 10.6, 11.45, 12.3, 12.3, 12.3, 11.45, 10.0, 8.8, 7.67, 7.28, 6.9, 6.28, 6.28, 6.28, 5.37, 5.37, 5.37, 5.37, 5.06, 4.02, 3.22, 8.49, 8.05, -0.0, -7.6, -8.05, -5.69, 0.0, 0.0, 3.65, 7.27, 10.73, 11.28, 12.66, 12.79, 11.2, 12.64, 18.47, 22.1, 19.6, 15.97, 4.52, 6.0, 8.38, 8.61, 9.76, 9.66, 9.3, 9.3, 10.24, 9.46, 10.4, 10.4, 10.4, 12.14, 12.14, 12.58, 12.58, 13.01, 13.01, 12.89, 13.32, 13.15, 13.57, 14.11, 14.11, 14.55, 14.47, 14.47, 14.47, 14.47, 14.47, 14.47, 14.47, 14.47, 14.9, 14.9, 15.2, 15.2, 15.2, 14.75, 14.3, 13.86, 13.86, 13.41, 12.96, 12.96, 12.52, 12.52, 12.52, 12.52, 12.35, 12.79, 12.79, 12.79, 12.79, 12.3, 11.45, 10.6, 11.45, 11.87, 11.87, 11.2, 10.4, 9.6, 8.8, 7.67, 7.28, 6.9, 6.28, 6.7, 6.32, 5.69, 5.37, 4.47, 5.06, 4.74, 4.43, 4.11, 6.01, 7.6, 8.05, -8.49, -8.05, 8.49, -3.8, 0.0, 0.0, 10.28, 7.59, 7.9, 8.85, 8.54, 6.67, 9.62, 16.25, 21.28, 20.39, 17.78, 14.39, 4.38, 6.36, 8.1, 7.95, 8.22, 8.22, 7.9, 8.49, 8.49, 8.49, 8.49, 8.49, 12.14, 12.14, 12.58, 12.58, 12.58, 13.01, 13.32, 13.32, 13.32, 13.15, 14.11, 14.11, 14.11, 14.55, 14.47, 14.47, 14.47, 14.47, 14.47, 14.03, 14.03, 14.75, 15.2, 15.2, 15.2, 15.2, 14.75, 14.3, 13.86, 13.86, 13.41, 13.41, 12.96, 12.52, 12.52, 12.07, 12.07, 12.35, 12.35, 12.35, 12.35, 12.35, 11.87, 11.45, 10.6, 11.45, 11.87, 11.2, 10.8, 10.0, 9.6, 8.82, 8.05, 7.67, 6.28, 5.93, 6.32, 6.32, 5.37, 5.37, 4.75, 4.74, 4.43, 3.79, 3.48, 5.69, 7.6, -7.6, -8.05, -8.05, -8.94, -7.6, -8.0, -9.39, -9.83, -0.0, 3.39, 4.32, 5.4, 6.08, 10.09, 13.81, 17.63, 18.95, 20.67, 19.51, 10.59, 3.14, 7.51, 7.73, 7.54, 7.26, 7.9, 8.58, 7.9, 7.9, 7.9, 7.9, 12.14, 12.14, 12.58, 12.58, 12.58, 13.01, 13.32, 13.32, 13.32, 13.57, 13.57, 14.11, 14.55, 14.55, 14.55, 14.47, 14.47, 14.47, 14.47, 14.47, 14.75, 14.75, 15.2, 15.2, 15.2, 14.75, 14.75, 14.3, 13.86, 13.41, 13.41, 13.41, 12.96, 12.52, 12.52, 12.07, 11.91, 11.91, 11.91, 12.35, 12.35, 11.87, 11.87, 11.45, 11.03, 11.87, 11.6, 11.2, 10.4, 9.6, 8.82, 8.43, 8.43, 8.05, 6.63, 6.28, 6.32, 5.95, 5.06, 5.37, 4.75, 4.19, 4.11, 3.79, 2.95, 3.0, 0.0, -7.15, -7.6, -8.06, -8.94, -9.39, -8.91, -9.39, -9.39, -0.0, -0.0, -0.0, 1.84, 5.77, 9.5, 10.99, 12.37, 16.63, 20.73, 20.69, 0.0, 0.0, 5.2, 8.53, 8.22, 8.22, 10.0, 11.18, 7.9, 7.59, 7.59, 7.59, 12.14, 12.14, 12.58, 12.58, 12.58, 13.01, 13.32, 13.32, 13.32, 13.75, 14.11, 14.11, 14.55, 14.55, 14.55, 14.47, 14.47, 14.47, 14.47, 14.75, 14.75, 14.75, 15.2, 15.2, 14.75, 14.75, 14.75, 14.3, 13.86, 13.86, 13.41, 13.41, 12.96, 12.52, 12.52, 12.07, 11.91, 11.91, 11.91, 11.91, 11.91, 11.45, 11.45, 11.45, 11.45, 11.87, 11.6, 11.2, 9.97, 9.2, 8.82, 8.43, 8.43, 6.98, 6.63, 6.28, 6.28, 5.84, 5.06, 5.06, 4.47, 3.91, 4.11, 3.22, 2.95, 2.8, 0.0, -6.36, -7.15, -8.05, -8.49, -8.0, -9.39, -9.33, -9.39, -6.64, -0.0, -0.0, -0.0, 6.71, 8.53, 9.62, 10.79, 14.65, 20.49, 18.66, -8.85, -5.1, 0.0, 6.42, 9.58, 10.0, 11.18, -0.0, -7.9, -9.6, -9.6, -9.6, 12.14, 12.14, 12.14, 12.58, 12.58, 12.46, 12.89, 13.32, 13.32, 13.75, 14.16, 14.55, 14.55, 14.55, 14.55, 14.55, 14.47, 14.47, 14.75, 14.75, 14.75, 14.75, 14.75, 14.75, 14.75, 14.75, 14.75, 14.3, 13.86, 13.86, 13.41, 13.41, 12.96, 12.96, 12.52, 12.07, 11.91, 11.46, 11.46, 11.46, 11.91, 11.45, 11.45, 11.03, 11.45, 11.2, 11.12, 10.73, 10.35, 9.58, 8.82, 8.43, 7.68, 6.98, 6.63, 6.28, 5.69, 5.84, 5.37, 5.06, 4.47, 4.19, 3.91, 2.76, 2.76, 2.4, 0.0, -4.43, -6.0, -6.4, -7.37, -8.49, 9.39, 9.83, -9.83, -9.39, -4.4, -3.11, -0.0, 6.2, 8.22, 9.08, 11.5, 14.27, 22.73, 20.56, -15.65, -8.73, -4.37, 0.0, 6.64, 8.03, 7.59, 11.18, -10.73, -10.28, -10.28, -10.28, 12.14, 12.14, 12.14, 12.58, 12.58, 12.46, 12.89, 13.32, 13.32, 13.75, 14.16, 14.55, 14.55, 14.55, 14.55, 14.55, 14.47, 14.47, 14.75, 14.75, 14.75, 14.75, 14.75, 14.75, 14.75, 14.75, 14.3, 14.3, 13.86, 13.41, 13.41, 12.96, 12.96, 12.96, 12.52, 11.91, 11.91, 11.46, 11.46, 11.46, 11.03, 11.03, 11.03, 11.03, 11.03, 10.4, 10.35, 10.35, 10.35, 9.58, 9.2, 8.82, 7.68, 7.33, 6.98, 6.01, 5.69, 5.69, 5.37, 5.37, 4.47, 4.19, 3.22, 2.99, 2.99, 2.16, 0.0, -3.72, -4.74, -5.72, -6.08, -4.46, 0.0, 6.32, 9.83, -9.39, -4.2, -0.0, 4.6, 7.59, 7.9, 9.3, 11.61, 19.65, 22.98, 21.01, -6.31, -9.17, -10.73, 0.0, 4.71, 5.1, 0.0, -4.2, -8.8, -9.33, -9.33, -9.33, 12.14, 12.14, 12.14, 12.14, 12.58, 12.46, 12.89, 12.89, 13.32, 13.72, 14.16, 14.11, 14.55, 14.55, 14.55, 14.55, 14.47, 14.47, 14.75, 15.2, 14.75, 14.75, 14.75, 14.75, 14.75, 14.3, 14.3, 14.3, 13.86, 13.41, 13.41, 12.96, 12.96, 12.52, 12.35, 11.91, 11.91, 11.46, 11.46, 10.6, 11.03, 11.03, 11.03, 11.03, 10.6, 9.58, 9.97, 9.97, 9.97, 9.58, 9.2, 8.03, 7.68, 7.68, 6.64, 6.32, 6.01, 6.01, 5.69, 5.37, 3.97, 3.2, 3.45, 3.22, 2.8, 2.32, 1.23, 0.0, -4.29, -5.06, -4.56, -3.15, -2.06, 0.0, 0.0, -8.94, -9.39, 9.83, 10.28, 9.6, 10.18, 10.0, 13.82, 18.78, 21.9, 20.28, -7.6, -5.15, -6.94, -11.18, -7.59, 0.0, -5.69, -6.01, -8.48, -9.11, -9.11, -9.11, 12.14, 12.14, 12.14, 12.14, 12.04, 12.46, 12.89, 13.32, 13.72, 13.72, 13.72, 14.11, 14.55, 14.55, 14.55, 14.55, 14.47, 14.47, 14.75, 15.2, 15.2, 14.75, 14.75, 14.75, 14.3, 14.3, 14.3, 13.86, 13.86, 13.41, 13.41, 12.96, 12.96, 12.52, 12.27, 11.91, 11.91, 11.46, 11.46, 10.6, 10.6, 11.03, 11.03, 10.6, 9.58, 9.2, 9.2, 9.2, 9.2, 9.2, 8.38, 8.03, 7.68, 6.95, 6.95, 6.64, 6.32, 6.32, 5.44, 4.87, 4.22, 3.2, 3.0, 3.0, 3.0, 2.12, 1.1, 0.0, 0.0, -3.97, -4.46, -5.1, -3.32, -4.0, -2.83, -4.71, -4.2, 0.0, 7.27, 9.2, 10.28, 10.73, 12.92, 16.8, 20.39, 18.24, -11.06, -7.82, -8.22, -11.18, -10.96, -10.73, -8.94, -8.94, -8.91, -8.33, -8.33, -8.33, 12.14, 12.14, 12.14, 12.14, 12.04, 12.04, 12.46, 12.89, 13.28, 13.28, 13.72, 14.11, 14.11, 14.55, 14.55, 14.55, 14.47, 14.47, 14.75, 15.2, 15.2, 15.2, 15.2, 14.75, 14.3, 14.3, 14.3, 13.86, 13.86, 13.41, 12.96, 12.96, 12.52, 12.27, 12.27, 11.84, 11.91, 11.46, 10.6, 10.6, 10.6, 10.6, 10.6, 10.38, 9.2, 9.2, 9.2, 9.2, 8.82, 8.03, 8.03, 8.03, 8.03, 6.95, 6.95, 6.64, 6.01, 5.72, 5.44, 4.46, 4.46, 3.4, 3.2, 3.0, 3.0, 2.12, 1.1, 1.1, 1.23, 0.0, -5.37, -5.69, -5.1, -5.36, -7.44, -6.32, -2.97, 0.0, 2.49, 5.7, 7.27, 10.52, 12.0, 14.3, 18.16, 18.47, -11.06, -9.16, -8.03, -10.14, -10.58, -10.73, -9.97, -9.39, -9.39, -9.39, -9.39, -9.39, 12.14, 12.14, 12.14, 12.14, 12.46, 12.46, 12.83, 12.83, 13.28, 13.28, 13.67, 14.11, 14.11, 14.55, 14.55, 14.55, 14.47, 14.47, 14.75, 14.75, 15.2, 15.2, 15.2, 14.75, 14.3, 14.3, 14.3, 13.86, 13.41, 13.41, 12.96, 12.52, 12.27, 12.27, 11.84, 11.84, 11.84, 10.79, 10.79, 10.38, 10.38, 10.38, 10.38, 9.58, 9.2, 9.2, 9.2, 8.82, 8.03, 8.03, 8.03, 8.03, 7.27, 6.95, 6.95, 6.3, 6.01, 5.72, 5.72, 4.71, 4.46, 3.4, 3.4, 3.2, 3.2, 3.2, 1.96, 1.01, 2.49, 0.0, -5.37, -5.37, -5.69, -6.44, -7.6, -8.0, -4.2, 0.0, 0.0, 2.02, 4.6, 8.23, 9.7, 12.51, 16.54, 18.3, 16.09, -11.16, -6.64, -7.28, -8.94, -10.28, -10.73, -10.28, -9.39, -9.39, -9.39, -9.39, 12.14, 12.14, 12.14, 12.42, 12.83, 12.83, 12.83, 13.28, 13.28, 13.28, 13.67, 13.67, 14.11, 14.55, 14.55, 14.55, 14.47, 14.47, 14.75, 15.2, 15.2, 15.2, 15.2, 14.75, 14.3, 14.3, 13.86, 13.86, 13.41, 12.96, 12.96, 12.27, 12.27, 11.84, 11.84, 11.84, 11.4, 10.79, 10.79, 10.38, 10.38, 10.38, 9.58, 9.2, 9.2, 9.2, 9.2, 8.03, 8.03, 8.03, 8.03, 6.95, 7.27, 6.95, 6.3, 6.3, 6.01, 6.01, 5.72, 4.71, 4.71, 3.17, 3.17, 2.99, 3.2, 3.2, 1.96, 1.96, 2.26, 0.0, -2.4, -4.56, -5.06, -6.08, -5.69, -4.96, 0.0, 0.0, 0.0, 0.0, 2.02, 6.17, 8.59, 10.41, 14.75, 17.86, 16.88, -14.3, -8.73, -6.01, -8.91, -9.83, -10.28, -10.28, -9.39, -9.39, -9.39, -9.39, 12.42, 12.42, 12.42, 12.42, 12.83, 12.83, 12.83, 13.28, 13.28, 13.23, 13.67, 13.67, 14.11, 14.11, 14.55, 14.11, 14.03, 14.47, 14.75, 14.75, 15.2, 15.2, 15.2, 15.2, 14.3, 13.86, 13.86, 13.86, 13.41, 12.96, 12.58, 12.14, 12.27, 11.84, 11.84, 11.84, 11.21, 10.79, 10.79, 10.38, 10.38, 9.58, 9.2, 9.2, 9.2, 9.2, 8.03, 8.03, 8.03, 8.03, 8.03, 6.95, 6.95, 6.3, 6.3, 6.01, 6.01, 6.01, 6.01, 4.44, 4.21, 3.35, 3.17, 2.99, 2.99, 2.82, 2.82, 2.09, 2.09, 2.26, 0.0, -3.4, -5.06, -5.95, -5.37, -3.8, -4.0, -2.97, -4.2, 0.0, 0.0, 4.8, 8.59, 10.41, 13.56, 16.58, 16.87, 14.11, -12.72, -7.67, -8.05, -9.7, -9.83, -9.83, -9.39, -9.39, -9.39, -9.39, 12.42, 12.42, 12.42, 12.39, 12.39, 12.83, 12.83, 12.83, 13.28, 13.23, 13.67, 13.67, 14.11, 14.11, 14.11, 14.11, 14.11, 14.3, 14.75, 14.75, 14.75, 15.2, 15.2, 14.75, 14.3, 13.86, 13.86, 13.41, 13.41, 12.58, 12.58, 12.14, 11.71, 11.84, 11.84, 11.21, 11.21, 10.79, 10.79, 10.79, 9.58, 9.58, 9.58, 9.2, 9.2, 8.38, 8.03, 8.03, 8.03, 8.03, 6.95, 6.95, 6.95, 6.3, 6.3, 6.01, 6.01, 5.72, 4.66, 4.44, 4.44, 3.35, 3.17, 2.21, 2.99, 2.99, 2.99, 2.09, 2.21, 3.4, 2.26, 0.0, 0.0, -7.6, -5.06, -4.83, -5.1, -5.21, -4.2, -1.93, 0.0, 3.98, 7.9, 9.88, 12.2, 15.79, 16.31, 15.15, 13.01, -12.07, -8.72, -8.72, -9.33, -9.26, -9.26, -8.94, -8.94, -8.94, 12.42, 12.42, 12.86, 12.83, 12.83, 12.83, 12.83, 12.83, 12.83, 13.28, 13.23, 13.67, 14.11, 14.11, 14.11, 14.11, 14.11, 14.3, 14.3, 14.75, 14.75, 14.75, 14.75, 14.75, 14.3, 13.86, 13.86, 13.01, 13.01, 12.58, 12.58, 12.14, 11.71, 10.8, 11.21, 10.79, 10.79, 10.79, 10.79, 9.58, 9.58, 9.58, 9.58, 9.2, 8.38, 8.38, 8.38, 8.03, 8.03, 7.27, 6.95, 6.95, 6.3, 6.3, 6.01, 6.01, 5.21, 4.44, 4.44, 4.44, 4.44, 3.35, 2.33, 2.21, 2.21, 2.99, 2.99, 3.17, 1.95, 2.99, 3.2, 3.45, 4.11, 7.6, -4.74, -5.37, -5.1, -6.64, -4.2, -1.93, 0.0, 4.8, 7.27, 9.53, 11.6, 14.42, 15.38, 14.73, 13.82, 12.27, 10.73, -9.54, -8.72, -8.77, -8.67, -8.94, -8.94, -8.94, 12.42, 12.42, 12.86, 12.83, 12.83, 12.83, 12.83, 12.83, 12.83, 13.28, 13.23, 13.67, 14.11, 14.11, 14.11, 14.11, 14.11, 14.3, 14.3, 14.75, 14.75, 14.75, 14.75, 14.75, 14.3, 13.86, 13.86, 13.01, 13.01, 12.58, 12.58, 12.14, 11.71, 10.8, 11.21, 10.79, 10.79, 10.79, 10.79, 9.58, 9.58, 9.58, 9.58, 9.2, 8.38, 8.38, 8.38, 8.03, 8.03, 7.27, 6.95, 6.95, 6.3, 6.3, 6.01, 6.01, 5.21, 4.44, 4.44, 4.44, 4.44, 3.35, 2.33, 2.21, 2.21, 2.99, 2.99, 3.17, 1.95, 2.99, 3.2, 3.45, 4.11, 7.6, -4.74, -5.37, -6.32, -6.64, -4.2, -1.93, 0.0, 4.8, 7.27, 8.75, 10.35, 12.52, 14.47, 14.72, 13.41, 12.96, 11.91, 9.39, 9.39, -0.0, -0.0, -0.0, -0.0, -0.0]}, {"header": {"dx": 0.06612293990616946, "dy": 0.0552356325346848, "nx": 98, "ny": 59, "la1": 35.046912555036876, "la2": 31.78801023549047, "lo1": -121.43107172385933, "lo2": -114.95102361305473, "refTime": "2026041013", "parameterCategory": 1, "parameterNumber": 3}, "data": [13.99, 14.55, 14.75, 14.75, 14.75, 14.55, 14.47, 13.7, 14.31, 14.75, 13.86, 11.62, 12.52, 11.18, 10.28, 7.59, -0.0, -0.0, -0.0, 7.27, 9.39, 9.39, 8.0, 8.0, 7.15, 7.51, 5.63, 6.64, 7.15, 8.3, 9.21, 8.94, 8.49, 4.74, 3.0, 4.43, 7.15, 7.15, 7.6, 8.05, 7.6, 0.0, -8.22, -7.19, -6.4, -7.6, -7.8, -8.99, -7.58, -2.0, 5.8, 8.53, 8.53, 8.24, 8.54, 8.54, 8.91, 8.23, 7.69, 6.9, 6.9, 6.51, 6.87, 7.54, 7.54, 7.79, 6.73, 6.2, 5.33, 4.51, 3.68, 3.04, 3.82, 2.37, 2.45, 4.65, 5.6, 13.41, -0.0, -3.04, -2.02, -3.65, -3.49, -4.0, -7.44, -8.94, -7.6, -6.01, -3.15, -3.63, -5.2, -6.7, -7.51, -7.51, -7.12, -6.56, -6.0, -4.99, 13.28, 14.55, 14.75, 14.75, 14.75, 14.75, 14.9, 13.59, 14.31, 14.75, 13.41, 12.96, 11.62, 10.73, 11.62, 11.18, -0.0, -0.0, -0.0, 4.4, 9.2, 10.28, 8.91, 7.44, 6.44, 5.1, 5.36, 6.32, 7.15, 8.3, 7.89, 8.24, 6.8, 6.26, -0.0, 5.06, 8.05, 8.05, 8.49, 8.94, 6.95, -11.62, -10.79, -11.17, -12.56, -10.98, -11.28, -9.12, -2.79, 4.98, 8.22, 8.22, 7.65, 7.14, 8.32, 8.54, 8.23, 7.69, 6.9, 6.9, 6.0, 6.3, 6.87, 8.44, 9.17, 8.44, 7.44, 6.9, 5.16, 4.36, 4.51, 3.96, 2.81, 1.83, 2.54, 1.83, 2.06, 13.41, -0.0, -3.04, -2.02, -3.65, -3.49, -4.0, -7.44, -8.94, -7.6, -6.01, -3.15, -3.63, -5.2, -6.7, -7.51, -7.51, -7.12, -6.56, -6.0, -4.99, 13.28, 14.47, 14.75, 14.75, 14.75, 14.75, 14.9, 14.75, 14.75, 14.3, 12.52, 10.28, 11.62, 11.62, 10.73, 10.73, 0.0, -0.0, -0.0, 5.0, 3.11, 4.8, 11.18, 9.2, 7.44, 6.79, 6.32, 5.36, 6.32, 8.67, 8.05, 7.01, 6.4, 5.37, 2.12, 0.0, 0.0, 0.0, 9.39, 10.28, -11.62, -13.59, -14.39, -14.3, -15.53, -14.22, -9.98, 0.0, 6.9, 6.87, 7.27, 6.97, 6.4, 7.51, 8.24, 8.05, 7.44, 6.9, 6.42, 5.55, 6.0, 6.87, 9.17, 9.17, 9.17, 9.17, 7.96, 6.96, 6.53, 5.11, 4.51, 3.81, 2.4, 0.0, 0.0, 0.0, 0.0, 0.0, -4.38, -2.63, -2.02, -3.49, -4.6, -5.59, -6.32, -8.67, -7.63, -6.01, -4.96, -6.0, -7.49, -8.31, -9.06, -9.06, -7.1, -5.0, -3.11, -2.58, 13.88, 14.3, 14.75, 14.75, 14.75, 14.75, 15.2, 14.75, 13.99, 13.86, 12.07, 10.73, 12.07, 11.18, 7.9, 0.0, 0.0, 0.0, -0.0, -0.0, 3.53, -0.0, 5.0, 11.62, 10.18, 8.18, 6.01, 5.36, 5.36, 7.07, 8.49, 8.94, 8.94, 7.44, 4.0, 1.84, 0.0, 0.0, -3.68, -9.48, -12.87, -16.79, -16.69, -14.08, -12.33, -6.14, 2.98, 6.2, 5.98, 6.5, 6.16, 6.21, 6.21, 7.28, 7.28, 7.78, 6.3, 6.0, 5.55, 4.58, 5.27, 7.54, 9.62, 10.87, 10.61, 9.42, 8.61, 7.93, 7.63, 7.13, 5.91, 3.8, 1.23, 0.0, -4.48, -4.48, -3.32, -2.63, -11.06, -4.98, -3.11, -3.65, -5.36, -4.71, -4.46, -4.96, -8.94, -6.79, -5.76, -8.05, -9.25, -9.11, -8.59, -6.97, 0.0, 0.0, 0.0, -1.11, 13.88, 14.3, 14.75, 14.75, 14.75, 14.75, 15.2, 14.75, 13.99, 13.86, 12.07, 10.73, 11.62, 11.18, 10.73, 0.0, 0.0, 0.0, 0.0, -0.0, -0.0, 7.59, 7.59, 11.62, 10.73, 10.6, 6.95, 5.21, 5.21, 4.71, 8.48, 9.33, 10.4, 8.22, 2.71, 0.0, 0.0, 0.0, -4.95, -12.96, -13.59, -10.46, -5.64, -2.63, 0.0, 3.82, 6.76, 6.5, 6.76, 5.99, 6.94, 6.94, 6.94, 6.94, 7.28, 6.3, 5.8, 4.98, 4.58, 4.58, 4.55, 10.12, 11.5, 11.3, 10.94, 9.88, 8.85, 8.85, 8.49, 7.74, 6.47, 5.36, 4.15, 0.0, -5.6, -8.94, -8.22, -8.22, -14.3, -7.69, -3.87, -4.83, -5.1, -4.21, -4.42, -7.6, -8.3, -6.95, -9.06, -10.18, -9.39, -8.87, -6.21, 10.73, 9.11, 3.49, 0.0, -2.47, 13.88, 14.3, 14.3, 14.75, 14.75, 14.75, 15.2, 13.99, 13.99, 13.86, 12.07, 10.28, 11.18, 10.73, 0.0, -0.0, 0.0, 0.0, 0.0, -0.0, -0.0, -0.0, 0.0, 12.96, 8.53, 5.4, 6.45, 5.0, 2.6, 3.39, 5.21, 9.39, 9.83, 0.0, 0.0, 0.0, 0.0, 0.0, -2.87, -13.28, -13.39, -4.52, 0.0, 2.06, 4.93, 7.28, 7.02, 7.02, 5.99, 5.4, 5.98, 6.21, 6.21, 6.44, 6.43, 5.27, 3.73, 3.73, 3.25, 3.25, 5.8, 12.27, 11.71, 11.45, 10.94, 9.88, 8.85, 9.17, 8.38, 7.26, 5.91, 5.67, 5.21, 4.54, 0.0, -9.8, -10.52, -10.52, -10.28, -7.24, -6.01, -7.44, -6.28, -5.37, -6.55, -8.49, -9.65, -10.51, -10.65, -10.75, -10.12, -8.85, 11.62, 7.89, 8.91, 0.0, -3.25, -4.01, 14.3, 14.3, 14.3, 14.75, 14.75, 14.75, 14.75, 13.99, 13.57, 13.86, 12.07, 6.95, 0.0, 0.0, 0.0, -0.0, -0.0, -12.52, -12.52, -12.52, -9.17, -12.79, -14.75, -15.65, -6.8, 0.0, 0.0, 0.0, 0.0, 3.39, 7.59, 7.81, 8.8, 0.0, -2.28, -2.28, -2.35, 0.0, 0.0, 0.0, -10.12, -12.96, 0.0, 3.25, 6.6, 8.3, 8.15, 7.51, 7.73, 6.44, 6.21, 5.98, 5.6, 3.96, 3.44, 1.61, 1.43, 1.43, 1.17, 1.29, 8.85, 12.07, 11.53, 11.3, 10.8, 9.42, 9.48, 7.78, 6.3, 4.81, 4.13, 3.36, 3.71, 2.8, 2.52, 0.0, -12.39, -10.28, -9.54, -9.64, -8.22, -8.33, -9.16, -9.6, -10.68, -11.42, -12.47, -12.22, -11.47, -10.22, -9.88, 0.0, 7.89, 7.6, 0.0, -3.52, -5.0, -5.51, 13.86, 14.3, 14.3, 14.3, 14.75, 14.75, 14.75, 13.99, 12.79, 13.41, 11.18, 6.95, 0.0, 0.0, 0.0, -0.0, 0.0, 0.0, 0.0, 0.0, 0.0, 0.0, -9.48, -14.84, -14.42, -10.75, -11.06, -11.38, 0.0, 0.0, 5.4, 5.4, 0.0, 0.0, -1.84, -3.96, -4.81, -1.84, 0.0, 0.0, -0.0, -0.0, -0.0, 0.0, 11.38, 10.12, 8.93, 8.53, 7.95, 9.17, 6.97, 4.48, 3.96, 3.44, 0.0, 0.0, 0.0, 0.0, 0.0, 0.0, 11.28, 11.18, 11.18, 10.4, 9.42, 8.87, 6.73, 4.1, 1.33, 1.04, 1.71, 0.84, 0.0, 0.0, 0.0, 0.0, 0.0, 0.0, -5.6, -10.12, -14.3, -12.07, -9.83, -10.7, -11.84, -12.22, -11.94, -11.6, -10.58, -9.02, -10.0, 6.32, 6.8, 8.49, 0.0, -3.45, -5.63, -5.86, 13.86, 14.3, 14.3, 14.3, 14.75, 14.75, 14.75, 13.99, 12.79, 12.96, 11.62, 10.4, 0.0, 0.0, 0.0, 0.0, -12.96, -13.41, 0.0, 0.0, 13.41, 13.41, 0.0, -10.12, -12.3, -7.9, -8.8, -13.86, -15.65, 0.0, -4.38, -4.81, -3.69, -3.36, -2.06, -1.91, -5.0, -5.0, -2.49, 0.0, -5.8, -4.66, -4.66, -0.0, 0.0, 10.6, 11.2, 9.17, 8.85, 8.24, 8.59, 6.21, 3.82, 1.71, 0.0, -1.91, -3.19, -2.82, -1.91, 6.45, 10.84, 10.52, 9.97, 10.4, 6.2, 6.4, 4.38, 1.29, -1.33, -1.09, 0.0, -0.79, -0.84, -1.72, -1.19, -1.9, -1.91, -1.5, -2.28, -6.19, -10.59, -14.23, -9.8, -9.62, -10.1, -10.79, -10.35, -9.92, -8.24, -7.87, 7.15, 5.94, 6.71, 0.0, -5.1, -4.83, -6.45, -6.57, 13.86, 13.86, 14.3, 14.3, 14.75, 14.75, 14.75, 13.19, 12.79, 9.17, 12.52, 9.17, 5.4, 6.0, 0.0, -13.41, -14.3, -14.75, -14.75, -13.41, -9.17, 0.0, 0.0, -10.12, -14.3, -11.62, -9.39, -10.73, -14.75, -10.12, -8.85, -9.17, -7.0, 0.0, -3.82, -2.71, -2.1, -3.49, -5.2, -12.96, -10.79, -7.19, -8.22, -4.6, -0.0, 11.18, 9.67, 7.24, 8.3, 9.76, 9.42, 9.08, 7.56, 4.58, 1.91, 0.0, -1.91, -6.97, -3.68, 11.28, 11.09, 10.22, 11.03, 11.09, 8.58, 6.2, 4.38, 2.32, -2.62, -5.64, -3.96, -3.07, -3.1, -2.72, -3.47, -5.8, -7.56, -5.98, -4.48, -4.29, -6.71, -11.7, -13.01, -7.71, -8.3, -8.55, -8.67, -8.32, -8.23, -7.44, 0.0, 0.0, -6.0, -6.8, -6.52, -6.05, -6.97, -5.63, 13.86, 13.15, 13.57, 14.75, 14.75, 14.75, 14.75, 13.19, 12.79, 9.48, 12.96, 13.86, 9.8, 6.2, 0.0, 0.0, -7.0, -13.02, -14.53, -16.12, -17.43, -17.43, -12.01, -10.43, -14.75, 0.0, 0.0, 0.0, -12.96, -9.8, -7.19, 0.0, 0.0, 0.0, -10.0, -3.82, -2.28, 0.0, -8.53, -13.86, -14.3, -13.41, -11.62, 0.0, 10.73, 10.28, 10.41, 10.38, 9.58, 10.27, 10.4, 10.18, 9.34, 9.08, 8.02, 8.41, 8.22, 0.0, -0.0, 11.46, 11.18, 11.0, 12.98, 13.56, 13.19, 12.27, 9.5, 7.69, 0.0, -6.7, -6.94, -5.43, -4.52, -5.14, -6.2, -7.69, -9.17, -9.02, -7.93, -6.0, -4.81, -5.98, -12.65, -10.37, -7.15, -5.72, -7.07, -7.81, -7.87, -6.01, -7.07, -9.2, -7.6, -6.23, -7.15, -7.52, -6.83, -7.6, 13.86, 13.15, 13.57, 13.99, 14.75, 14.75, 14.75, 14.75, 14.3, 9.48, 0.0, 0.0, 0.0, 0.0, 0.0, 0.0, 0.0, -2.89, -5.09, -4.67, 0.0, 2.28, 2.21, 0.0, 4.24, 5.8, 0.0, 3.6, 7.9, 0.0, 0.0, 8.22, 11.62, -0.0, 0.0, 0.0, 0.0, 0.0, -8.85, -13.41, -13.86, 0.0, 8.53, 7.9, 10.28, 9.39, 10.73, 10.73, 10.58, 10.58, 10.47, 10.92, 10.55, 10.8, 10.8, 10.87, 11.28, 9.42, 12.52, 8.03, 10.25, 12.75, 13.99, 14.66, 14.71, 14.42, 13.81, 12.37, 9.8, 6.0, 0.0, 0.0, -1.29, -3.56, -7.19, -8.59, -9.17, -10.41, -8.24, -7.11, 0.0, 6.0, -5.6, -8.18, -4.8, -4.2, -5.36, -6.64, -4.96, -6.32, -8.8, -9.96, -7.89, -6.8, -7.76, -7.48, -7.87, -0.0, 13.86, 13.15, 13.57, 13.99, 13.99, 14.75, 14.75, 14.3, 14.3, 13.86, 0.0, 0.0, 0.0, 0.0, 0.0, 0.0, 0.0, 0.0, 0.0, 0.0, 1.33, 2.4, 3.53, 3.53, 3.53, 3.85, 3.25, 5.28, 7.24, 6.95, 0.0, 0.0, 8.22, 0.0, 10.28, 4.4, 4.6, -0.0, -0.0, -5.4, -0.0, 12.52, 12.07, 10.28, 9.33, 8.67, 9.54, 9.97, 9.83, 9.83, 8.94, 8.82, 8.91, 9.46, 11.03, 10.8, 10.61, 11.06, 5.2, 7.47, 11.64, 13.36, 13.8, 13.41, 13.82, 14.27, 14.21, 14.16, 12.65, 12.0, 11.68, 9.62, 7.18, 5.0, -2.93, -8.85, -9.17, -8.53, -3.96, 0.0, 7.59, 3.68, -3.96, -12.72, -3.96, -3.04, -3.98, -2.39, -3.11, -4.71, -6.32, -7.67, -7.06, -7.37, -8.02, -8.53, -7.27, -0.0, 13.86, 13.86, 13.15, 11.9, 12.27, 13.57, 12.79, 14.3, 14.3, 14.3, 0.0, 0.0, 0.0, 0.0, 0.0, 0.0, 0.0, 0.0, 0.0, 0.0, 0.0, 1.3, 2.64, 2.8, 2.8, 2.8, 2.81, 1.77, 2.28, 2.54, 0.0, 0.0, 0.0, 0.0, -0.0, 4.4, -0.0, -0.0, -0.0, -7.59, -0.0, -0.0, 10.0, 10.6, 9.33, 9.33, 6.7, 6.95, 9.6, 9.6, 9.83, 10.73, 0.0, 0.0, 0.0, -0.0, 10.28, 5.4, 5.5, 9.33, 11.21, 13.41, 13.41, 12.88, 11.91, 11.91, 12.07, 11.76, 11.6, 10.01, 11.25, 10.43, 9.36, 7.14, 5.06, 0.0, 10.73, 4.6, 2.39, 2.39, 0.0, 0.0, -5.6, -11.9, -11.2, -8.05, -5.8, 0.0, 0.0, -3.4, -5.63, -6.08, -5.95, -6.79, -7.59, -7.56, -6.95, -7.6, 13.86, 13.86, 13.15, 11.9, 11.9, 11.9, 11.9, 12.79, 12.79, 10.12, 14.3, 0.0, 0.0, 0.0, 0.0, 0.0, 0.0, 0.0, 0.0, 0.0, 0.0, 1.51, 1.42, 2.88, 2.88, 2.96, 1.6, 0.0, 0.0, 0.0, 0.0, -3.96, 0.0, 0.0, 0.0, 0.0, 0.0, 0.0, 0.0, -10.28, 0.0, 0.0, 10.73, 9.6, 8.4, 8.0, 8.0, 6.01, 6.32, -0.0, 0.0, 0.0, -9.83, -8.49, 0.0, -3.6, -8.06, -3.45, 1.46, 9.62, 11.06, 10.79, 10.38, 10.0, 10.0, 9.96, 10.84, 11.18, 9.2, 8.93, 8.64, 7.51, 5.43, 3.08, 1.45, 6.95, 8.82, 6.42, 3.82, 0.0, -5.0, -6.71, -7.59, -8.58, -10.14, -11.62, -9.48, -6.2, -4.2, -5.21, -5.9, -6.01, -5.49, -5.77, -5.89, -3.8, -4.46, -4.46, 13.86, 13.86, 12.39, 13.57, 11.9, 10.12, 11.9, 11.9, 10.12, 12.79, 10.43, 14.75, 0.0, 0.0, 0.0, 0.0, 0.0, 0.0, 0.0, 0.0, 0.0, 1.78, 1.6, 3.24, 2.96, 2.96, 1.5, 0.0, 0.0, 0.0, -2.15, -2.5, -3.36, 0.0, 0.0, 0.0, 0.0, 0.0, 0.0, 0.0, 0.0, 0.0, 0.0, 9.83, 8.4, 7.6, 8.06, 7.2, 8.05, 8.49, 0.0, 0.0, 0.0, 0.0, 0.0, 0.0, -8.49, -6.95, 0.0, 8.22, 10.28, 9.6, 7.27, 6.95, 4.2, 2.97, 4.71, 9.54, 9.75, 8.24, 5.06, 1.63, 0.0, -2.28, 0.0, 10.0, 10.04, 9.5, 6.95, 4.38, 0.0, -8.85, -10.8, -10.4, -10.52, -9.39, -10.08, -9.54, -8.67, -7.67, -6.64, -5.59, -5.84, -4.83, -5.49, -5.72, -6.01, -6.01, 9.8, 12.39, 12.79, 12.39, 11.53, 10.12, 10.12, 10.43, 11.9, 10.12, 13.19, 14.75, 15.2, 0.0, 0.0, 0.0, 0.0, 0.0, 0.0, 0.0, 0.0, 0.0, 1.78, 3.49, 2.88, 2.88, 1.46, 0.0, 0.0, -2.34, -2.4, -2.79, -5.98, -6.4, -6.32, 0.0, 0.0, 0.0, 0.0, 0.0, -10.73, -8.94, 0.0, 8.49, 8.4, 8.0, 8.0, 8.49, 8.49, 8.94, 8.94, 9.39, 9.39, 6.64, 6.64, 6.64, 0.0, 0.0, 11.18, 11.62, 7.9, 10.28, 8.8, 8.4, 6.64, 5.69, -0.0, 3.8, 8.91, 4.05, 1.17, -2.37, -5.36, -5.2, 11.03, 12.66, 12.74, 11.06, 9.81, 8.16, 6.6, 2.28, -8.05, -12.14, -11.62, -9.83, -8.49, -8.49, -8.17, -7.37, -7.21, -5.69, -6.08, -6.39, -6.83, -6.64, -7.21, -7.21, 6.2, 12.39, 12.79, 12.79, 9.8, 9.8, 10.12, 10.12, 10.43, 12.27, 12.27, 13.59, 13.59, 6.8, 0.0, 0.0, 0.0, 0.0, 0.0, 0.0, 0.0, 0.0, 0.0, 1.89, 3.39, 3.16, 1.65, 0.0, 0.0, 0.0, -3.42, -3.51, -6.64, -7.2, -6.94, -7.6, -8.0, -10.28, -7.59, -9.2, -8.8, -9.39, 0.0, 8.49, 8.94, 9.39, 8.94, 8.94, 9.39, 9.39, 9.39, 9.83, 9.83, 6.95, 6.95, 6.95, 9.83, 10.28, 10.73, 7.9, 7.9, 9.2, 9.83, 8.91, 7.81, 8.06, 7.2, -6.01, -9.54, -4.4, -2.38, -1.66, -1.43, 2.89, 14.94, 15.47, 12.35, 9.81, 8.53, 7.36, 6.6, 4.81, 0.0, -12.52, -11.18, -8.94, -8.94, -8.49, -8.43, -9.63, -8.43, -6.01, -6.32, -7.32, -7.68, -7.4, -7.51, -7.51, 6.2, 9.8, 9.8, 10.12, 9.8, 9.8, 10.12, 10.12, 10.43, 10.43, 12.27, 12.65, 11.06, 7.0, 0.0, 0.0, 0.0, 0.0, 0.0, 0.0, 0.0, -3.16, 0.0, 0.0, 0.0, 0.0, 0.0, 0.0, 0.0, 0.0, 0.0, -4.34, -4.34, -6.47, -5.81, -7.51, -5.9, -7.51, -8.18, -10.6, -8.55, -9.2, 0.0, 9.83, 9.83, 9.83, 9.83, 9.39, 9.39, 9.39, 9.83, 9.83, 9.83, 9.83, 9.83, 10.28, 9.83, 7.59, 7.9, 5.0, 4.8, 7.27, 9.83, 7.07, 8.0, 7.6, 7.07, -8.94, -8.8, -7.02, -1.25, 2.72, 5.65, 6.75, 5.27, 2.72, 0.0, 0.0, 1.94, 2.72, 1.77, 1.02, -6.2, -12.14, -11.62, -10.28, -10.28, -11.02, -10.66, -10.68, -9.74, -8.15, -7.15, -7.54, -8.43, -7.87, -8.72, -8.72, 4.38, 7.69, 7.69, 7.69, 7.69, 7.69, 7.93, 10.12, 10.43, 10.43, 10.43, 8.43, 11.06, 4.95, 0.0, 0.0, 0.0, 0.0, 0.0, 0.0, 0.0, -3.9, -5.09, -5.51, -3.24, 0.0, 0.0, 0.0, 0.0, 0.0, 0.0, 0.0, -4.23, -4.23, -6.31, -5.64, -6.67, -5.98, -5.29, -4.37, -4.6, -1.84, 0.0, 3.49, 5.36, 4.8, 6.95, 6.95, 6.64, 9.39, 9.39, 9.39, 9.39, 9.39, 8.94, 8.4, 9.6, 8.18, 3.25, 0.0, 0.0, 6.95, 8.8, 7.81, 7.6, 6.79, 6.32, 9.39, 0.0, 0.0, 3.25, 6.13, 6.72, 4.27, 0.0, -6.1, -10.77, -11.06, -4.95, -1.89, -0.95, 0.0, -2.89, -11.16, -11.71, -10.84, -9.75, -7.27, -11.02, -10.73, -10.73, -10.92, -10.2, -8.95, -8.55, -9.2, -8.72, -8.72, 4.38, 4.38, 7.69, 7.69, 7.69, 7.69, 7.69, 7.93, 8.18, 8.43, 8.18, 8.43, 4.95, 4.95, 0.0, 0.0, 0.0, 0.0, 0.0, 0.0, 0.0, 0.0, 0.0, -3.9, -2.79, -2.11, 0.0, 0.0, 0.0, 0.0, 0.0, 0.0, 0.0, -3.42, -3.33, -6.14, -4.66, -4.1, -3.68, -2.82, -1.33, 0.0, 0.0, 1.39, 2.97, 3.39, 4.4, 6.95, 6.64, 9.39, 8.94, 8.94, 8.94, 9.39, 9.83, 8.48, 9.2, 8.55, 4.8, 0.0, 0.0, 6.95, 6.95, 6.95, 6.32, 6.32, 6.64, 9.83, 7.59, 8.22, 9.17, 8.83, 7.7, 3.6, -1.87, -9.42, -14.36, -13.59, -11.38, -8.91, -4.95, -2.07, 0.0, -14.3, -6.0, -11.62, 0.0, -6.95, -7.27, -9.55, -9.24, -11.87, -11.62, -9.33, -8.99, -8.72, -8.79, -8.79, 3.36, 3.36, 6.2, 6.2, 6.2, 8.31, 6.2, 6.4, 6.6, 6.8, 6.8, 4.81, 3.69, 3.79, 0.0, 0.0, 0.0, 0.0, 0.0, 0.0, 0.0, 0.0, 0.0, 0.0, 0.0, 0.0, 0.0, 0.0, 0.0, 0.0, 0.0, 0.0, 0.0, 0.0, -2.79, -2.79, -2.21, -1.96, -1.77, -1.58, -1.28, 0.0, 0.0, 0.0, 1.26, 1.32, 0.0, 0.0, 0.0, 6.32, 8.49, 8.49, 8.49, 8.94, 8.94, 9.83, 9.54, 10.41, 9.6, 0.0, -0.0, 5.21, 5.21, 6.64, 7.81, 8.91, 8.4, 9.83, 10.28, 11.18, 11.95, 11.64, 10.57, 6.8, -9.66, -12.94, -16.14, -16.69, -15.28, -12.89, -9.73, -5.81, -2.72, 0.0, 0.0, 0.0, -10.28, -7.81, -7.21, -7.9, -9.77, -11.18, -11.28, -8.48, -8.24, -8.06, -8.3, -8.3, 0.0, 0.0, 3.36, 6.2, 8.31, 8.31, 8.58, 6.4, 6.6, 6.8, 6.8, 3.69, 3.79, 3.79, 3.79, 0.0, 0.0, 0.0, 0.0, 0.0, 0.0, 0.0, 0.0, 0.0, 0.0, 0.0, 0.0, 0.0, 0.0, 0.0, 0.0, 0.0, 0.0, 0.0, 0.0, 0.0, 0.0, -1.83, -1.61, -1.44, 0.0, 0.0, 0.0, 0.0, 1.14, 1.25, 0.0, 0.0, 0.0, 0.0, 8.05, 8.49, 8.49, 8.49, 8.94, 8.94, 9.39, 10.28, 10.73, 4.0, 2.17, 2.83, 6.64, 8.0, 8.48, 9.21, 9.39, 9.39, 9.83, 8.91, 9.3, 11.87, 4.07, 4.67, -11.18, -9.83, -13.92, -15.61, -16.02, -15.9, -12.89, -10.12, -7.13, -5.46, -8.31, -10.04, -7.27, -7.33, -7.9, -8.22, -8.85, -5.0, 0.0, 0.0, -8.49, -7.6, -7.89, -7.89, 0.0, 0.0, 3.36, 6.2, 8.31, 8.31, 8.31, 8.58, 6.6, 6.8, 6.8, 7.0, 3.79, 3.79, 3.79, 3.79, 0.0, 0.0, 0.0, 0.0, 0.0, 0.0, 0.0, 0.0, 0.0, 0.0, 0.0, 0.0, 0.0, 0.0, 0.0, 0.0, 0.0, 0.0, 0.0, 0.0, 0.0, 0.0, 0.0, 0.0, 0.0, 0.0, 0.0, 0.0, 0.0, 0.0, 0.0, 0.0, 0.0, 0.0, 0.0, 6.01, 8.49, 8.49, 8.49, 8.49, 8.05, 8.94, 10.28, 10.28, 6.01, -0.0, -0.0, 8.49, 8.67, 9.39, 9.39, 9.54, 8.67, 9.83, -4.6, -4.66, -0.89, 1.1, 4.23, -14.3, -12.52, -12.22, -13.99, -14.68, -15.0, -12.62, -10.73, -8.91, -9.84, -10.09, -9.32, -8.8, -8.91, -0.0, 0.0, 6.64, 4.2, 0.0, -3.8, -7.6, -8.3, -8.3, 0.0, 0.0, 3.36, 6.2, 6.2, 8.31, 8.31, 8.58, 6.6, 6.8, 6.8, 6.8, 7.0, 3.07, 3.07, 3.07, 3.07, 0.0, 0.0, 0.0, 0.0, 0.0, 0.0, 0.0, 0.0, 0.0, 0.0, 0.0, 0.0, 0.0, 0.0, 0.0, 0.0, 0.0, 0.0, 0.0, 0.0, 0.0, 0.0, 0.0, 0.0, 0.0, 0.0, 0.0, 0.0, 0.0, 0.0, 0.0, 1.47, 1.54, 1.75, 4.6, 6.01, 8.05, 8.49, 8.49, 8.49, 7.6, 0.0, 0.0, 0.0, 0.0, 0.0, 9.39, 9.39, 9.39, 9.39, 9.39, 10.28, -10.28, -10.6, -7.96, -2.52, 1.78, 3.77, 4.95, 0.0, -15.77, -13.56, -11.54, -13.91, -14.05, -12.79, -12.16, -11.16, -10.0, -9.75, -8.94, -0.0, -0.0, -0.0, 0.0, 0.0, -2.97, -4.0, -6.32, -7.44, -7.44, 0.0, 0.0, 3.36, 6.2, 8.31, 8.31, 8.31, 8.58, 6.6, 6.6, 6.8, 6.8, 5.81, 3.07, 3.07, 3.07, 3.07, 3.07, 0.0, 0.0, 0.0, 0.0, 0.0, 0.0, 0.0, 0.0, 0.0, 0.0, 0.0, 0.0, 0.0, 0.0, 0.0, 0.0, 0.0, 0.0, 0.0, 0.0, 0.0, 0.0, 0.0, 0.0, 0.0, 0.0, 0.0, 0.0, 0.0, 0.0, 0.0, 0.0, 1.33, 1.4, 0.0, 6.01, 6.01, 8.49, 8.05, 8.05, 0.0, 0.0, 0.0, 0.0, 4.0, 9.39, 9.39, 8.94, 10.28, 10.73, 9.75, -10.28, -10.52, -8.1, -2.04, 0.89, 4.35, 7.92, 7.33, -1.34, -13.97, -11.99, -12.89, -14.05, -13.41, -12.36, -10.8, -9.96, -9.39, -0.0, -0.0, -0.0, -4.2, -10.28, -7.59, -5.7, -4.4, -4.2, -5.21, -5.21, 0.0, 0.0, 4.38, 7.69, 9.8, 9.8, 8.31, 8.31, 6.4, 6.6, 6.8, 5.64, 5.81, 5.64, 3.07, 3.07, 3.07, 3.07, 3.07, 0.0, 0.0, 0.0, 0.0, 0.0, 0.0, 0.0, 0.0, 0.0, 0.0, 0.0, 0.0, 0.0, 0.0, 0.0, 0.0, 0.0, 0.0, 0.0, 0.0, 0.0, 0.0, 0.0, 0.0, 0.0, 0.0, 0.0, 0.0, 0.0, 0.0, 0.0, 0.0, 0.0, 0.0, 1.84, 3.6, 5.37, 8.05, 7.6, 7.15, 0.0, 0.0, 0.0, 5.95, 8.67, 9.83, 9.39, 10.73, 10.28, 6.95, -10.28, -10.0, -8.22, -4.65, -0.99, 3.8, 7.04, 6.76, 3.89, -9.35, -11.57, -12.2, -14.08, -13.11, -11.6, -10.4, -11.02, -9.33, -0.0, -0.0, -0.0, -8.0, -10.28, -11.03, -10.4, -7.9, -6.44, -6.44, -6.44, 4.38, 4.38, 7.69, 9.8, 9.8, 8.31, 8.31, 8.31, 8.58, 6.4, 6.6, 5.64, 5.64, 5.64, 5.64, 2.98, 3.07, 3.07, 2.57, 2.57, 0.0, 0.0, 0.0, 0.0, 0.0, 0.0, 0.0, 0.0, 0.0, 0.0, 0.0, 0.0, 0.0, 0.0, 0.0, 0.0, 0.0, 0.0, 0.0, 0.0, 0.0, 0.0, 0.0, 0.0, 0.0, 0.0, 0.0, 0.0, 0.0, 0.0, 0.0, 0.0, 0.0, 0.0, 0.0, 0.0, 0.0, 7.6, 5.06, -0.0, -0.0, 0.0, 8.8, 8.91, 9.11, 10.84, 10.73, 10.28, 0.0, -10.28, -9.3, -6.21, -7.28, -6.21, -1.43, 0.0, 0.0, 1.69, 0.0, -11.18, -10.68, -13.57, -14.11, -12.38, -11.45, -12.07, -7.27, -3.8, -9.39, -9.83, -10.28, -11.18, -11.45, -12.14, -11.2, -9.66, -8.22, -8.22, 4.38, 4.38, 7.69, 9.8, 9.8, 8.31, 8.31, 8.58, 8.58, 6.4, 6.6, 5.64, 5.81, 5.81, 5.81, 5.64, 2.98, 2.5, 2.5, 2.5, 0.0, 0.0, 0.0, 0.0, 0.0, 0.0, 0.0, 0.0, 0.0, 0.0, 0.0, 0.0, 0.0, 0.0, 0.0, 0.0, 0.0, 0.0, 0.0, 0.0, 0.0, 0.0, 0.0, 0.0, 0.0, 1.62, 0.0, 0.0, 0.0, 0.0, 0.0, 0.0, 0.0, 0.0, 0.0, 0.0, 0.0, 0.0, 5.06, 3.4, -0.0, -0.0, 0.0, 9.39, 10.28, 10.28, 10.52, 10.28, -0.0, -10.28, -7.9, -3.96, -3.96, -8.54, -10.58, -10.33, -7.95, -4.29, 0.0, -10.04, -9.39, -12.85, -13.86, -12.79, -11.09, -10.73, -4.4, -9.2, -10.73, -10.6, -11.18, -11.62, -12.07, -12.96, -13.01, -11.6, -8.53, -8.53, 7.69, 7.69, 7.69, 9.8, 8.31, 8.31, 8.31, 8.58, 6.4, 6.4, 6.4, 5.64, 5.64, 5.81, 5.98, 5.81, 2.5, 2.5, 2.5, 2.5, 2.57, 0.0, 0.0, 0.0, 0.0, 0.0, 0.0, 0.0, 0.0, 0.0, 0.0, 0.0, 0.0, 0.0, 2.05, 1.83, 0.0, 0.0, 0.0, 0.0, 0.0, 0.0, 0.0, 0.0, 0.0, 0.0, 0.0, -2.63, -2.63, -2.45, -2.19, -1.75, 0.0, 0.0, 0.0, 0.0, 0.0, 0.0, 0.0, -0.0, -0.0, 0.0, 0.0, 9.39, 9.39, 9.39, 9.83, 9.6, 0.0, -9.83, -9.3, -5.4, -1.08, -3.81, -9.39, -12.2, -11.48, -8.99, -5.5, -4.38, -12.45, -12.44, -12.66, -12.47, -11.2, -11.99, -11.99, -11.6, -11.87, -11.2, -12.07, 0.0, 8.85, -12.96, -12.3, -11.6, -8.85, -8.85, 7.44, 7.44, 7.69, 8.31, 8.31, 8.31, 8.31, 6.4, 6.4, 6.6, 6.6, 6.4, 5.64, 5.64, 5.81, 5.81, 4.95, 2.57, 2.57, 2.57, 2.57, 2.57, 2.57, 0.0, 0.0, 0.0, 0.0, 0.0, 0.0, 0.0, 0.0, 0.0, 0.0, 0.0, 0.0, 0.0, 0.0, 0.0, 0.0, 0.0, 0.0, 0.0, 0.0, 0.0, 0.0, -2.02, 0.0, 0.0, 0.0, 0.0, -2.28, -2.28, -1.63, -1.63, -1.41, -1.3, -2.26, 0.0, 0.0, 0.0, -0.0, -8.49, 0.0, 8.94, 8.94, 8.49, 7.6, 0.0, 0.0, -4.6, -8.8, -9.6, -1.55, 0.92, -1.73, -8.54, -11.65, -9.49, -8.58, -6.35, -11.7, -15.9, -13.97, -13.2, -13.33, -12.7, -10.18, -9.12, -3.36, -4.1, 0.0, 12.96, 11.6, 5.6, -4.1, -3.14, -2.45, -2.45, 6.0, 6.0, 6.0, 8.31, 8.31, 8.31, 8.31, 6.4, 6.4, 6.6, 6.6, 6.6, 6.6, 5.81, 5.81, 5.81, 4.95, 2.65, 2.65, 2.65, 2.65, 2.65, 2.57, 2.57, 0.0, 0.0, 0.0, 0.0, 0.0, 0.0, 0.0, 0.0, 0.0, 0.0, 0.0, 0.0, 0.0, 0.0, 0.0, 0.0, 0.0, 0.0, 0.0, 0.0, 0.0, -1.58, -1.83, 0.0, 0.0, 0.0, -2.02, -1.58, -1.73, -1.63, -1.84, -1.19, -1.3, -2.26, -3.4, -5.06, -6.71, -7.6, 0.0, 8.49, 8.94, 8.49, 8.05, -9.39, -4.6, -3.98, -8.18, -10.28, -11.2, 0.0, 0.84, -3.39, -9.37, -9.3, -9.17, -7.97, -8.25, -12.01, -14.18, -12.11, -11.7, -11.7, -10.43, -7.82, -5.31, 0.0, 0.0, 8.85, 8.85, 6.94, 2.45, 0.0, 0.0, 0.0, 4.98, 4.98, 4.98, 6.2, 6.2, 6.2, 6.2, 6.4, 6.4, 6.6, 6.6, 6.6, 6.6, 6.6, 5.81, 5.81, 4.95, 2.57, 2.57, 2.65, 2.65, 2.65, 2.65, 2.57, 2.5, 0.0, 0.0, 0.0, 0.0, 0.0, 0.0, 0.0, 0.0, 0.0, 0.0, 0.0, 0.0, 0.0, 0.0, 0.0, 0.0, 0.0, 0.0, 0.0, 0.0, 0.0, 0.0, 0.0, 0.0, 0.0, -1.54, -1.75, -1.75, -1.95, -1.73, -1.98, -1.41, -1.7, -1.98, -1.98, -4.11, -5.37, 0.0, 0.0, 8.49, 7.63, 7.2, 0.0, -6.95, -4.8, 0.0, -0.0, -11.62, -9.31, -3.44, -1.82, -4.66, -11.84, -11.84, -6.3, -4.66, -2.0, 0.0, -2.72, -4.47, -6.11, -6.11, -5.65, -2.35, 0.0, 2.45, 6.7, 8.53, 5.6, 2.45, 2.45, 1.91, 1.91, 4.24, 4.24, 4.98, 4.98, 6.2, 6.2, 6.2, 6.4, 6.4, 6.6, 6.6, 3.69, 3.58, 6.6, 5.64, 5.81, 3.07, 2.57, 2.57, 2.65, 2.65, 2.72, 2.65, 2.65, 2.5, 2.5, 0.0, 0.0, 0.0, 0.0, 2.43, 0.0, 0.0, 0.0, 0.0, 0.0, 0.0, 0.0, 0.0, 0.0, 0.0, 0.0, 0.0, 0.0, 0.0, 0.0, 0.0, 0.0, 0.0, -1.71, -1.39, -1.54, -1.84, -1.75, -3.6, -1.73, -1.63, -1.52, -1.3, -1.41, -5.37, -5.69, 0.0, 8.49, 7.6, 6.32, 5.69, 5.69, -9.39, -10.28, 0.0, 0.0, -10.04, -10.47, -8.33, -3.47, 0.0, 6.4, 0.0, -4.38, -3.88, -2.8, -1.65, 0.0, 0.0, 0.0, -1.19, -1.15, 0.0, 1.77, 3.82, 4.48, 5.4, 2.93, 0.0, 1.98, 1.71, 1.71, 4.24, 4.24, 4.24, 4.98, 5.15, 6.2, 6.2, 6.4, 6.6, 3.58, 3.69, 3.69, 3.69, 3.58, 3.58, 2.98, 2.98, 2.5, 2.5, 2.57, 2.65, 2.65, 2.65, 2.65, 2.57, 0.0, 0.0, 0.0, 0.0, 0.0, 0.0, 0.0, 0.0, 0.0, 0.0, 0.0, 0.0, 0.0, 0.0, 0.0, 0.0, 0.0, 0.0, 0.0, 0.0, 0.0, 0.0, 0.0, -1.9, -1.83, -1.52, -1.69, -1.54, -3.32, -3.15, -3.4, -3.2, -3.0, -1.52, -1.05, -2.2, -3.6, 0.0, 8.05, 6.01, 3.8, 3.4, -0.0, -0.0, -0.0, 0.0, 0.0, -4.81, -6.76, -7.67, -2.53, 3.52, 6.49, 4.15, 0.0, -5.85, -6.66, -4.75, -1.5, 0.0, 0.0, 0.0, 0.0, 1.13, 2.37, 2.52, 3.07, 3.19, 1.91, 0.0, 0.0, 0.0, 0.0, 1.9, 1.9, 4.24, 4.24, 5.15, 5.15, 6.4, 6.4, 6.6, 3.58, 3.69, 3.69, 3.69, 3.58, 3.58, 2.98, 2.98, 2.5, 2.5, 2.57, 2.57, 2.65, 2.65, 2.65, 2.57, 0.0, 0.0, 0.0, 0.0, 0.0, 0.0, 0.0, 0.0, 0.0, 0.0, 0.0, 0.0, 0.0, 0.0, 0.0, 0.0, 0.0, 0.0, 0.0, 0.0, 0.0, -1.71, -1.83, -1.9, -1.83, -1.64, -1.69, -1.62, -3.49, -3.15, -3.6, -3.4, -3.2, -3.0, -2.6, -1.99, -2.4, 0.0, 0.0, 5.69, -0.0, 3.6, -0.0, -0.0, -0.0, -0.0, 0.0, 0.0, -1.03, -3.58, -2.01, 1.88, 4.25, 3.45, 0.0, -4.66, -8.68, -10.43, -2.35, 0.0, 0.0, 0.0, 0.0, 0.0, 0.93, 1.01, 1.23, 1.44, 0.0, 0.0, 0.0, 0.0, 0.0, 1.83, 1.83, 1.9, 4.24, 4.38, 5.15, 5.31, 6.4, 3.58, 3.58, 3.69, 3.69, 3.69, 3.69, 3.58, 2.89, 2.98, 2.98, 2.5, 2.57, 2.57, 2.57, 2.65, 2.65, 2.57, 2.5, 2.5, 0.0, 0.0, 0.0, 0.0, 0.0, 0.0, 0.0, 0.0, 0.0, 0.0, 0.0, 0.0, 0.0, 0.0, 0.0, 0.0, 0.0, 0.0, 0.0, -1.64, -1.77, -3.56, -3.56, -3.82, -3.53, -3.25, -3.65, -3.32, -2.99, -3.4, -3.4, -3.0, -2.8, -2.6, -2.98, 0.0, 0.0, -0.0, -0.0, -0.0, 3.8, 4.0, -0.0, -0.0, 10.28, 6.94, 1.47, -0.87, -3.69, -4.05, -3.59, -3.25, -3.12, -3.6, -5.81, -12.72, -7.19, -2.06, -1.25, -0.96, -0.93, 0.0, 0.0, 0.0, 0.0, 0.0, 0.0, 0.0, 0.0, -1.71, -1.98, 1.61, 1.61, 1.9, 3.68, 4.38, 5.15, 5.31, 5.31, 3.58, 3.58, 3.69, 3.69, 3.69, 3.69, 3.69, 2.89, 2.89, 2.98, 2.98, 2.57, 2.57, 2.57, 2.57, 2.65, 2.57, 2.5, 2.43, 2.43, 0.0, 0.0, 0.0, 0.0, 0.0, 0.0, 0.0, 0.0, 0.0, 0.0, 0.0, 0.0, 0.0, 0.0, 0.0, 0.0, 0.0, 0.0, -1.64, -3.44, -4.24, -4.1, -3.96, -3.68, -3.39, -3.65, -3.32, -3.15, -3.4, -3.91, -4.02, -3.76, -3.49, -2.98, -8.05, 0.0, -7.6, 0.0, -0.0, -0.0, -0.0, -0.0, -0.0, -0.0, 5.4, 0.99, 0.0, -1.78, -6.4, -7.89, -7.39, -5.35, -2.48, -1.38, -6.4, -11.99, -7.19, -4.1, -2.45, -1.16, 0.0, 0.0, 0.0, 0.0, 0.0, 0.0, 0.0, -1.33, -1.33, -1.71, 1.61, 1.61, 1.83, 1.9, 4.38, 4.38, 5.31, 5.31, 2.89, 3.58, 2.98, 3.69, 3.69, 3.69, 2.98, 2.89, 2.89, 2.89, 2.98, 2.98, 2.57, 2.57, 2.57, 2.57, 2.57, 2.5, 2.43, 2.43, 2.35, 0.0, 0.0, 0.0, 0.0, 0.0, 0.0, 0.0, 0.0, 0.0, 0.0, 0.0, 0.0, 0.0, 0.0, 0.0, 0.0, 0.0, -1.96, -4.52, -4.52, -4.38, -4.1, -4.48, -3.98, -3.82, -3.32, -3.15, -4.83, -3.91, -4.29, -4.02, -3.76, -4.11, -3.79, -8.05, -8.05, 0.0, -0.0, -0.0, -0.0, 0.0, -0.0, -4.0, -10.4, -1.61, 2.38, 3.41, 0.0, -7.0, -7.95, -5.41, -2.56, -1.13, -2.89, -10.12, -13.41, -4.1, -2.13, 0.0, 0.0, 0.0, 0.0, 0.0, 0.0, 0.0, -1.2, -1.2, -1.33, -1.33, 1.61, 1.61, 1.83, 3.68, 3.68, 4.38, 4.38, 5.31, 2.81, 2.89, 2.89, 2.89, 2.98, 2.98, 2.89, 2.89, 2.89, 2.89, 2.89, 2.98, 2.5, 2.5, 2.5, 2.57, 2.57, 2.57, 2.43, 2.35, 2.35, 0.0, 0.0, 0.0, 0.0, 0.0, 0.0, 0.0, 0.0, 0.0, 0.0, 0.0, 0.0, 0.0, -2.35, -2.45, -4.32, -2.54, -2.5, -5.81, -5.48, -5.31, -5.15, -4.65, -3.98, -3.65, -4.6, -5.1, -4.83, -3.91, -4.75, -5.06, -4.74, -4.11, -5.37, -7.15, 0.0, 0.0, -0.0, -0.0, -0.0, 0.0, -0.0, -8.0, -10.18, -5.0, 0.0, 4.6, 5.06, 0.0, -6.02, -7.73, -4.32, 0.0, 0.0, 0.0, 0.0, 0.0, 0.0, 0.0, 0.0, 0.0, 0.0, 0.0, 0.0, -1.2, -1.2, -1.2, -1.33, -1.33, 1.55, 1.55, 1.83, 3.56, 3.68, 4.24, 4.38, 4.52, 2.35, 2.81, 2.89, 2.89, 2.89, 2.89, 2.89, 2.89, 2.89, 2.89, 2.89, 2.89, 2.98, 2.98, 2.98, 2.98, 2.98, 2.98, 2.89, 2.35, 2.35, 0.0, 0.0, 0.0, 0.0, 0.0, 0.0, 0.0, 0.0, 0.0, 0.0, 0.0, 0.0, -2.35, -2.28, -2.06, -3.82, -4.24, -2.43, -2.5, -5.31, -5.15, -4.98, -4.48, -3.65, -4.83, -5.36, -5.1, -5.03, -5.03, -5.03, -4.75, -5.06, -4.74, -4.11, -5.37, 0.0, 0.0, 0.0, 0.0, 7.15, -0.0, -6.01, -8.06, -10.28, -7.87, -6.45, -1.48, 1.65, 4.22, 2.09, -2.93, -11.18, 0.0, 0.0, 0.0, -3.04, -3.82, -2.82, -1.91, -1.64, -1.44, -1.44, -1.44, -1.28, -2.62, -1.33, -1.33, -1.33, -1.33, 1.55, 1.55, 3.14, 3.56, 3.68, 3.68, 4.38, 4.38, 4.38, 2.35, 2.81, 2.89, 2.89, 2.89, 2.89, 2.89, 2.89, 2.89, 2.89, 2.89, 2.98, 2.98, 2.98, 2.98, 2.98, 2.98, 2.89, 0.0, 0.0, 0.0, 0.0, 0.0, 0.0, 0.0, 0.0, 0.0, 0.0, 0.0, 0.0, -1.9, -1.96, -2.28, -2.2, -1.98, -3.68, -4.1, -2.35, -2.35, -4.24, -3.96, -3.82, -4.15, -3.49, -4.83, -4.6, -5.36, -5.03, -5.03, -5.03, -5.03, -5.37, -5.37, -5.36, -5.37, -7.6, 0.0, 0.0, 8.05, 5.06, 5.37, -5.69, -8.24, -9.39, -9.55, -8.59, -7.95, -2.81, 1.7, 5.88, 5.95, 7.0, 5.35, 1.26, -2.48, -5.28, -6.67, -6.21, -5.4, -4.75, -4.24, -2.93, -2.82, -2.93, -3.04, -2.62, -2.62, -2.62, -2.62, 1.55, 1.55, 3.14, 3.14, 3.68, 3.68, 3.81, 3.81, 4.52, 2.35, 2.35, 2.89, 2.89, 2.89, 2.89, 2.89, 2.89, 2.89, 2.89, 2.89, 2.98, 2.98, 2.98, 2.98, 2.98, 0.0, 0.0, 0.0, 0.0, 0.0, 0.0, 0.0, 0.0, 0.0, 0.0, 0.0, 0.0, 0.0, -1.9, -1.9, -1.9, -2.2, -2.13, -3.68, -3.53, -3.82, -4.24, -4.24, -4.24, -3.82, -3.53, -3.82, -4.6, -4.6, -4.37, -5.31, -5.03, -5.03, -4.75, -5.03, -5.69, -5.37, -5.06, -5.21, -5.69, 0.0, 0.0, 7.15, 5.37, -0.0, -6.32, -8.49, -9.39, -9.55, -8.38, -6.98, -3.04, 0.98, 5.25, 10.12, 12.07, 10.92, 6.76, 0.0, -8.31, -10.91, -9.17, -8.3, -8.15, -6.4, -6.21, -5.2, -5.6, -5.4, -4.24, -4.08, -4.08, -4.08, 3.04, 3.04, 3.14, 3.14, 3.14, 3.25, 3.68, 3.81, 4.52, 4.52, 2.35, 2.35, 2.89, 2.89, 2.89, 2.89, 2.89, 2.89, 2.89, 2.89, 2.89, 2.98, 2.98, 2.98, 0.0, 0.0, 0.0, 0.0, 0.0, 0.0, 0.0, 0.0, 0.0, 0.0, 0.0, 0.0, 0.0, 0.0, -2.2, -2.13, -2.13, -2.13, -2.13, -3.68, -3.53, -3.82, -4.1, -4.1, -4.1, -3.82, -5.0, -4.4, -4.6, -4.37, -4.14, -5.03, -5.03, -5.03, -5.37, -5.37, -5.37, -5.37, -5.06, -5.36, -4.84, 0.0, 0.0, 7.15, -0.0, -0.0, -5.69, -8.49, -8.94, -9.13, -7.27, 0.0, 2.82, 2.81, 6.4, 10.27, 12.64, 12.59, 9.72, 6.23, -2.0, -13.57, -11.99, -10.47, -9.69, -8.54, -7.24, -6.2, -6.97, -6.4, -6.76, -5.2, -5.2, -5.2, 3.04, 3.04, 3.14, 3.14, 3.25, 3.25, 3.68, 3.81, 4.38, 4.52, 2.35, 2.35, 2.43, 2.89, 2.89, 2.89, 2.89, 2.89, 2.89, 2.89, 2.89, 2.98, 2.98, 0.0, 0.0, 0.0, 0.0, 0.0, 0.0, 0.0, 0.0, 0.0, 0.0, 0.0, 0.0, 0.0, 0.0, -2.06, -2.13, -2.13, -2.13, -2.13, -4.1, -3.82, -3.53, -3.82, -3.96, -3.96, -5.6, -5.2, -4.8, -4.4, -4.6, -4.37, -4.14, -5.03, -4.46, -4.22, -5.69, -5.37, -5.59, -5.06, -4.74, -4.43, -4.11, -6.01, 0.0, 0.0, -0.0, -0.0, 0.0, -7.6, -8.94, -9.39, 0.0, 7.59, 7.9, 8.85, 9.76, 11.12, 10.58, 9.41, 9.36, 10.2, 8.42, -7.2, -13.15, -11.81, -10.12, -9.08, -8.22, -8.22, -7.9, -7.27, -7.27, -7.27, -7.27, -7.27, 3.04, 3.04, 3.14, 3.14, 3.14, 3.25, 3.81, 3.81, 3.81, 4.38, 2.35, 2.35, 2.35, 2.43, 2.89, 2.89, 2.89, 2.89, 2.89, 2.81, 2.81, 0.0, 0.0, 0.0, 0.0, 0.0, 0.0, 0.0, 0.0, 0.0, 0.0, 0.0, 0.0, 0.0, 0.0, 0.0, 0.0, -2.06, -2.06, -2.06, -2.06, -2.06, -3.96, -3.82, -3.53, -3.82, -3.96, -5.6, -5.4, -5.0, -4.8, -5.29, -4.83, -4.6, -5.03, -4.75, -4.22, -4.22, -5.37, -5.37, -5.93, -4.74, -4.43, -3.79, -3.48, -5.69, 0.0, -0.0, -0.0, -0.0, -0.0, -3.8, -4.0, -0.0, -0.0, 10.28, 10.18, 10.79, 10.8, 10.94, 8.83, 7.36, 9.69, 11.85, 11.58, 6.5, -12.71, -12.58, -10.01, -9.27, -9.42, -9.08, -7.9, -6.44, -7.9, -7.9, -7.9, -7.9, 3.04, 3.04, 3.14, 3.14, 3.14, 3.25, 3.81, 3.81, 3.81, 4.52, 4.52, 2.35, 2.43, 2.43, 2.43, 2.89, 2.89, 2.89, 2.89, 2.89, 0.0, 0.0, 0.0, 0.0, 0.0, 0.0, 0.0, 0.0, 0.0, 0.0, 0.0, 0.0, 0.0, 0.0, 0.0, 0.0, -1.98, -1.98, -1.98, -2.06, -2.06, -3.96, -3.96, -3.82, -3.68, -3.96, -5.8, -5.6, -5.2, -4.8, -5.29, -5.06, -5.06, -4.83, -5.31, -5.03, -4.22, -3.97, -5.06, -5.37, -5.93, -5.24, -4.11, -3.79, -3.93, -6.0, -6.71, -0.0, -0.0, 2.69, -0.0, -0.0, -2.97, -0.0, -0.0, 9.83, 10.28, 10.73, 11.02, 10.09, 8.15, 7.69, 8.83, 10.5, 9.5, 8.46, -13.86, -11.62, -10.4, -8.53, -8.22, -8.22, -5.0, 0.0, -7.9, -7.59, -7.59, -7.59, 3.04, 3.04, 3.14, 3.14, 3.14, 3.25, 3.81, 3.81, 3.81, 3.93, 2.35, 2.35, 2.43, 2.43, 2.43, 2.89, 2.89, 2.89, 2.89, 0.0, 0.0, 0.0, 0.0, 0.0, 0.0, 0.0, 0.0, 0.0, 0.0, 0.0, 0.0, 0.0, 0.0, 0.0, 0.0, 0.0, -1.98, -1.98, -1.98, -1.98, -1.98, -3.82, -3.82, -3.82, -3.82, -3.96, -5.8, -5.6, -5.98, -5.52, -5.29, -5.06, -5.06, -5.59, -5.31, -5.03, -5.03, -4.87, -5.06, -5.06, -5.59, -4.89, -4.11, -4.29, -3.93, -5.6, -6.26, -2.12, -0.0, -0.0, -0.0, 4.0, -0.0, -3.11, -0.0, 6.64, 9.83, 9.83, 10.73, 8.94, 8.53, 8.01, 7.19, 5.49, 4.66, 2.07, -11.8, -8.93, -9.39, -8.03, -5.75, -5.0, 0.0, 11.62, 7.9, 4.8, 4.8, 4.8, 3.04, 3.04, 3.04, 3.14, 3.14, 3.56, 3.68, 3.81, 3.81, 3.93, 2.02, 2.43, 2.43, 2.43, 2.43, 2.43, 2.89, 2.89, 0.0, 0.0, 0.0, 0.0, 0.0, 0.0, 0.0, 0.0, 0.0, 0.0, 0.0, 0.0, 0.0, 0.0, 0.0, 0.0, 0.0, 0.0, -1.98, -1.91, -1.91, -1.91, -1.98, -3.82, -3.82, -3.68, -3.82, -5.6, -6.67, -6.44, -6.21, -5.75, -5.29, -5.06, -6.14, -5.59, -5.31, -5.03, -5.69, -4.87, -5.37, -5.06, -5.59, -5.24, -4.89, -4.6, -4.6, -4.8, -6.71, -4.43, -3.0, -3.2, -1.84, -0.0, 0.0, 0.0, -0.0, -0.0, 8.8, 9.33, 10.28, 9.3, 8.22, 7.26, 4.93, 1.02, -1.75, 0.0, -0.0, -6.98, -7.28, -8.49, -6.64, -6.42, -7.59, 0.0, -0.0, -0.0, -0.0, -0.0, 3.04, 3.04, 3.04, 3.14, 3.14, 3.56, 3.68, 3.81, 3.81, 3.93, 2.02, 2.43, 2.43, 2.43, 2.43, 2.43, 2.89, 2.89, 0.0, 0.0, 0.0, 0.0, 0.0, 0.0, 0.0, 0.0, 0.0, 0.0, 0.0, 0.0, 0.0, 0.0, 0.0, 0.0, 0.0, -1.98, -1.98, -1.91, -1.91, -1.91, -3.68, -3.68, -3.68, -3.68, -3.68, -5.2, -6.21, -6.21, -6.21, -5.75, -5.52, -5.29, -6.14, -5.86, -5.59, -6.01, -5.69, -5.69, -5.37, -5.37, -5.59, -5.24, -5.37, -4.98, -4.98, -5.4, -6.71, -5.58, -4.74, -4.29, -4.56, -6.7, -8.49, -6.32, 0.0, -0.0, 8.4, 9.83, 9.2, 7.59, 7.9, 6.97, 3.32, -0.89, -3.53, 0.0, 15.77, 9.17, -0.0, -9.39, -7.07, -6.79, -9.39, -8.4, -4.4, -3.11, -3.11, -3.11, 3.04, 3.04, 3.04, 3.04, 3.14, 3.56, 3.68, 3.68, 3.81, 1.96, 2.02, 2.35, 2.43, 2.43, 2.43, 2.43, 2.89, 2.89, 0.0, 0.0, 0.0, 0.0, 0.0, 0.0, 0.0, 0.0, 0.0, 0.0, 0.0, 0.0, 0.0, 0.0, 0.0, 0.0, -2.06, -1.98, -1.98, -1.91, -1.91, -3.53, -3.68, -3.68, -3.68, -3.68, -3.53, -5.75, -5.98, -5.98, -5.98, -5.75, -5.52, -6.42, -6.14, -6.14, -6.64, -6.32, -6.01, -6.01, -5.69, -5.37, -5.95, -6.4, -5.75, -5.37, -5.6, -5.81, -6.14, -6.26, -5.72, -5.06, -6.08, -7.89, -8.24, -8.05, -8.05, -0.0, -0.0, 0.0, 0.0, 4.8, 3.39, 5.0, 0.99, 0.0, 0.0, 3.38, 15.19, 12.87, 10.41, -0.0, -7.59, -9.39, -5.69, -6.01, -2.83, -2.28, -2.28, -2.28, 3.04, 3.04, 3.04, 3.04, 3.44, 3.56, 3.68, 3.81, 1.96, 1.96, 1.96, 2.35, 2.43, 2.43, 2.43, 2.43, 2.89, 2.89, 0.0, 0.0, 0.0, 0.0, 0.0, 0.0, 0.0, 0.0, 0.0, 0.0, 0.0, 0.0, 0.0, 0.0, 0.0, 0.0, -2.45, -1.98, -1.98, -1.91, -1.91, -3.53, -3.53, -3.68, -3.68, -3.53, -5.75, -5.52, -5.52, -5.52, -5.52, -5.52, -6.7, -6.42, -6.14, -6.95, -6.95, -6.64, -6.32, -6.32, -6.52, -5.84, -6.32, -6.4, -6.0, -6.0, -6.0, -6.36, -6.61, -6.26, -7.15, -5.95, -6.7, -6.79, -8.3, -8.0, -8.48, -7.07, -8.4, -9.83, -7.27, -4.6, 0.0, 0.0, 1.08, 2.52, 2.66, 6.08, 11.06, 9.77, 8.22, -0.0, -2.19, -0.0, -0.0, -0.0, -2.97, -1.67, -1.67, -1.67, 3.04, 3.04, 3.04, 3.04, 3.44, 3.44, 3.56, 3.68, 1.9, 1.9, 1.96, 2.35, 2.35, 2.43, 2.43, 2.43, 2.89, 2.89, 0.0, 0.0, 0.0, 0.0, 0.0, 0.0, 0.0, 0.0, 0.0, 0.0, 0.0, 0.0, 0.0, 0.0, 0.0, -2.45, -2.45, -2.37, -1.98, -1.91, -3.53, -3.53, -3.53, -3.53, -3.53, -4.15, -5.52, -5.52, -5.52, -5.52, -5.29, -6.42, -6.42, -6.42, -6.42, -6.95, -6.95, -6.64, -7.21, -6.87, -6.52, -6.7, -6.7, -6.8, -6.4, -6.0, -6.0, -6.36, -6.61, -6.61, -6.14, -7.6, -5.37, -5.69, -6.79, -7.15, -4.96, -6.32, -8.91, -9.83, -9.97, -8.55, -7.27, -2.1, -1.33, 0.0, 2.48, 3.36, 11.06, 7.85, 6.42, 1.69, -1.76, -0.0, 2.49, -0.0, -0.0, -0.0, -0.0, -0.0, 3.04, 3.04, 3.04, 3.04, 3.56, 3.56, 1.83, 1.83, 1.9, 1.9, 2.28, 2.35, 2.35, 2.43, 2.43, 2.43, 2.89, 2.89, 0.0, 0.0, 0.0, 0.0, 0.0, 0.0, 0.0, 0.0, 0.0, 0.0, 0.0, 0.0, 0.0, 0.0, -2.45, -2.45, -2.37, -2.37, -2.37, -4.32, -4.32, -4.15, -4.15, -4.15, -4.15, -5.75, -5.52, -5.52, -5.52, -5.29, -6.42, -6.42, -6.42, -6.42, -7.27, -6.95, -6.95, -7.56, -7.21, -6.87, -6.87, -7.07, -6.7, -6.8, -6.8, -6.4, -6.4, -6.4, -6.88, -7.08, -6.23, -7.15, -5.37, -5.37, -5.69, -4.83, -3.8, -4.0, -8.4, -9.83, -10.28, -10.08, -9.2, -6.17, -5.54, -3.41, 0.0, 1.08, 0.0, 7.44, 6.64, 4.37, -0.0, -0.0, -0.0, -0.0, -0.0, -0.0, -0.0, -0.0, 3.04, 3.04, 3.04, 1.55, 1.83, 1.83, 1.83, 1.9, 1.9, 1.9, 2.28, 2.28, 2.35, 2.43, 2.43, 2.43, 2.89, 2.89, 0.0, 0.0, 0.0, 0.0, 0.0, 0.0, 0.0, 0.0, 0.0, 0.0, 0.0, 0.0, 0.0, -2.45, -2.45, -2.37, -2.37, -2.37, -2.28, -4.32, -4.32, -4.15, -4.15, -4.15, -5.75, -5.52, -5.52, -5.52, -5.52, -6.42, -6.42, -6.42, -6.42, -6.95, -7.27, -6.95, -7.56, -7.56, -7.21, -7.21, -6.87, -7.07, -7.07, -7.4, -7.4, -6.99, -6.4, -6.4, -6.88, -6.88, -6.79, -7.6, -7.21, -6.08, -5.06, -4.56, -5.69, -7.44, -9.39, -9.39, -9.83, -9.83, -10.08, -8.23, -7.15, -6.94, -3.69, -0.89, -1.88, -0.0, 6.98, 6.01, 2.97, -0.0, -0.0, -0.0, -0.0, -0.0, -0.0, -0.0, 1.55, 1.55, 1.55, 1.55, 1.83, 1.83, 1.83, 1.9, 1.9, 2.2, 2.28, 2.28, 2.35, 2.35, 2.43, 2.35, 2.81, 2.89, 0.0, 0.0, 0.0, 0.0, 0.0, 0.0, 0.0, 0.0, 0.0, 0.0, 0.0, 0.0, -3.14, -3.04, -2.45, -2.37, -2.37, -2.37, -4.48, -4.32, -4.32, -4.15, -4.15, -5.75, -5.52, -5.52, -5.52, -5.52, -6.42, -6.42, -6.42, -6.42, -6.42, -6.95, -6.95, -7.56, -7.56, -7.21, -7.21, -7.21, -7.21, -7.76, -7.37, -7.81, -7.4, -6.99, -6.99, -6.57, -6.57, -7.31, -7.31, -6.79, -7.15, -6.8, -5.06, -3.97, -5.37, -7.6, -8.0, -8.91, -8.4, -9.83, -10.28, -9.6, -7.15, -6.94, -5.81, -3.69, -1.98, -5.64, 4.24, 4.6, 4.83, 1.62, -0.0, -0.0, -0.0, -0.0, -0.0, -0.0, 1.55, 1.55, 1.55, 1.77, 1.77, 1.83, 1.83, 1.83, 1.9, 2.2, 2.28, 2.28, 2.35, 2.35, 2.35, 2.35, 2.35, 0.0, 0.0, 0.0, 0.0, 0.0, 0.0, 0.0, 0.0, 0.0, 0.0, 0.0, 0.0, -3.14, -3.14, -3.04, -2.93, -2.37, -2.37, -4.48, -4.48, -4.32, -4.32, -4.32, -5.75, -5.75, -5.75, -5.52, -5.52, -6.7, -6.42, -6.42, -6.42, -6.42, -6.95, -6.95, -6.95, -7.56, -7.56, -7.21, -7.21, -6.87, -8.15, -7.76, -7.76, -7.81, -7.4, -7.74, -6.99, -6.99, -6.99, -7.31, -7.74, -6.8, -6.79, -8.05, -6.71, -0.0, -5.06, -6.44, -6.79, -7.81, -8.4, -9.64, -10.28, -9.96, -7.9, -7.68, -6.57, -4.93, -2.72, -1.17, -3.25, -0.0, 3.49, 3.49, 3.11, 1.54, 1.54, -0.0, -0.0, -0.0, 1.55, 1.55, 1.61, 1.83, 1.83, 1.83, 1.83, 1.83, 1.83, 1.9, 2.2, 2.28, 2.35, 2.35, 2.35, 2.35, 2.35, 0.0, 0.0, 0.0, 0.0, 0.0, 0.0, 0.0, 0.0, 0.0, 0.0, -3.25, -3.25, -3.14, -3.14, -3.04, -2.93, -5.4, -4.48, -4.32, -4.32, -4.32, -4.32, -5.75, -5.75, -5.75, -5.75, -5.52, -6.7, -6.7, -6.7, -6.42, -6.42, -7.27, -6.95, -6.95, -7.56, -7.56, -7.21, -7.21, -7.81, -7.76, -7.76, -7.76, -7.76, -7.81, -8.17, -7.74, -7.74, -6.99, -6.99, -7.4, -7.81, -6.99, -6.4, -5.75, -4.11, 0.0, -4.74, -5.37, -6.79, -6.64, -8.4, -9.64, -10.28, -9.6, -8.49, -7.41, -5.8, -4.81, -2.88, -0.87, -1.06, -2.45, 0.0, 2.39, 3.49, 1.75, 2.17, -0.0, -0.0, -0.0, 1.55, 1.55, 1.61, 1.83, 1.83, 1.83, 1.83, 1.83, 1.83, 1.9, 2.2, 2.28, 2.35, 2.35, 2.35, 2.35, 2.35, 0.0, 0.0, 0.0, 0.0, 0.0, 0.0, 0.0, 0.0, 0.0, 0.0, -3.25, -3.25, -3.14, -3.14, -3.04, -2.93, -5.4, -4.48, -4.32, -4.32, -4.32, -4.32, -5.75, -5.75, -5.75, -5.75, -5.52, -6.7, -6.7, -6.7, -6.42, -6.42, -7.27, -6.95, -6.95, -7.56, -7.56, -7.21, -7.21, -7.81, -7.76, -7.76, -7.76, -7.76, -7.81, -8.17, -7.74, -7.74, -6.99, -6.99, -7.4, -7.81, -6.99, -6.4, -5.75, -4.11, 0.0, -4.74, -5.37, -6.32, -6.64, -8.4, -9.64, -10.28, -9.6, -8.49, -7.65, -6.21, -4.81, -2.89, -0.92, 0.0, 0.0, -1.98, 0.0, 0.0, 9.39, 9.39, 9.39, 9.39, 9.39]}]